Time,TemperatureF,DewpointF,PressureIn,WindDirection,WindDirectionDegrees,WindSpeedMPH,WindSpeedGustMPH,Humidity,HourlyPrecipIn,Conditions,Clouds,dailyrainin,SoftwareType,DateUTC
2013-12-07 00:00:00,37.5,35.1,30.14,NNE,16,5.0,12.0,91,0.17,,,0.48,Wunderground v.1.15,2013-12-07 05:00:00,
2013-12-07 00:01:00,37.5,35.1,30.14,NNW,345,3.0,12.0,91,0.17,,,0.48,Wunderground v.1.15,2013-12-07 05:01:00,
2013-12-07 00:07:00,37.3,34.9,30.12,NW,311,4.0,5.0,91,0.11,,,0.49,Wunderground v.1.15,2013-12-07 05:07:00,
2013-12-07 00:08:00,37.3,34.9,30.12,SE,146,4.0,5.0,91,0.11,,,0.49,Wunderground v.1.15,2013-12-07 05:08:00,
2013-12-07 00:10:00,37.2,34.8,30.12,NE,56,10.0,10.0,91,0.11,,,0.50,Wunderground v.1.15,2013-12-07 05:10:00,
2013-12-07 00:11:00,37.2,34.8,30.12,NNE,33,7.0,10.0,91,0.11,,,0.50,Wunderground v.1.15,2013-12-07 05:11:00,
2013-12-07 00:15:00,37.2,34.8,30.13,North,355,4.0,4.0,91,0.11,,,0.50,Wunderground v.1.15,2013-12-07 05:15:00,
2013-12-07 00:16:00,37.2,34.8,30.13,NE,36,4.0,4.0,91,0.10,,,0.50,Wunderground v.1.15,2013-12-07 05:16:00,
2013-12-07 00:17:00,37.2,34.8,30.14,NNW,331,1.0,4.0,91,0.08,,,0.50,Wunderground v.1.15,2013-12-07 05:17:00,
2013-12-07 00:19:00,37.2,34.8,30.14,NW,325,3.0,5.0,91,0.07,,,0.50,Wunderground v.1.15,2013-12-07 05:19:00,
2013-12-07 00:21:00,37.2,34.8,30.13,NE,51,5.0,5.0,91,0.05,,,0.50,Wunderground v.1.15,2013-12-07 05:21:00,
2013-12-07 00:22:00,37.2,34.8,30.14,NE,41,5.0,5.0,91,0.05,,,0.50,Wunderground v.1.15,2013-12-07 05:22:00,
2013-12-07 00:24:00,37.2,34.8,30.13,North,10,2.0,5.0,91,0.04,,,0.50,Wunderground v.1.15,2013-12-07 05:24:00,
2013-12-07 00:26:00,37.2,34.8,30.13,North,355,3.0,5.0,91,0.04,,,0.50,Wunderground v.1.15,2013-12-07 05:26:00,
2013-12-07 00:28:00,37.2,34.8,30.12,NNE,28,1.0,5.0,91,0.00,,,0.50,Wunderground v.1.15,2013-12-07 05:28:00,
2013-12-07 00:33:00,37.0,34.6,30.12,ENE,61,3.0,4.0,91,0.00,,,0.50,Wunderground v.1.15,2013-12-07 05:33:00,
2013-12-07 00:34:00,37.0,34.6,30.13,NE,43,6.0,6.0,91,0.00,,,0.50,Wunderground v.1.15,2013-12-07 05:34:00,
2013-12-07 00:37:00,37.0,34.6,30.12,East,80,4.0,6.0,91,0.00,,,0.50,Wunderground v.1.15,2013-12-07 05:37:00,
2013-12-07 00:38:00,37.0,34.6,30.12,North,5,8.0,8.0,91,0.00,,,0.50,Wunderground v.1.15,2013-12-07 05:38:00,
2013-12-07 00:39:00,37.0,34.6,30.11,ENE,59,7.0,8.0,91,0.00,,,0.50,Wunderground v.1.15,2013-12-07 05:39:00,
2013-12-07 00:41:00,36.9,34.2,30.11,NNE,30,8.0,11.0,90,0.00,,,0.50,Wunderground v.1.15,2013-12-07 05:41:00,
2013-12-07 00:42:00,36.9,34.2,30.10,NNE,28,9.0,9.0,90,0.00,,,0.50,Wunderground v.1.15,2013-12-07 05:42:00,
2013-12-07 00:44:00,36.9,35.3,30.10,NNE,28,2.0,9.0,94,0.00,,,0.50,Wunderground v.1.15,2013-12-07 05:44:00,
2013-12-07 00:46:00,36.9,34.2,30.12,NNW,340,4.0,9.0,90,0.00,,,0.50,Wunderground v.1.15,2013-12-07 05:46:00,
2013-12-07 00:48:00,36.9,34.2,30.13,NNW,333,3.0,9.0,90,0.00,,,0.50,Wunderground v.1.15,2013-12-07 05:48:00,
2013-12-07 00:49:00,36.9,34.2,30.13,NNE,32,1.0,9.0,90,0.00,,,0.50,Wunderground v.1.15,2013-12-07 05:49:00,
2013-12-07 00:51:00,36.9,34.2,30.13,NE,34,3.0,9.0,90,0.00,,,0.51,Wunderground v.1.15,2013-12-07 05:51:00,
2013-12-07 00:54:00,36.9,34.2,30.12,NW,310,6.0,7.0,90,0.00,,,0.51,Wunderground v.1.15,2013-12-07 05:54:00,
2013-12-07 00:55:00,36.9,34.2,30.11,NE,53,6.0,7.0,90,0.11,,,0.51,Wunderground v.1.15,2013-12-07 05:55:00,
2013-12-07 00:56:00,36.9,34.2,30.11,ENE,63,2.0,7.0,90,0.11,,,0.52,Wunderground v.1.15,2013-12-07 05:56:00,
2013-12-07 00:57:00,36.9,34.2,30.11,ENE,62,4.0,7.0,90,0.11,,,0.52,Wunderground v.1.15,2013-12-07 05:57:00,
2013-12-07 00:58:00,36.8,34.1,30.10,ENE,59,4.0,7.0,90,0.11,,,0.52,Wunderground v.1.15,2013-12-07 05:58:00,
2013-12-07 01:02:00,36.8,34.1,30.10,NNE,24,0.0,5.0,90,0.09,,,0.52,Wunderground v.1.15,2013-12-07 06:02:00,
2013-12-07 01:03:00,36.8,34.1,30.10,NNE,24,0.0,5.0,90,0.08,,,0.52,Wunderground v.1.15,2013-12-07 06:03:00,
2013-12-07 01:06:00,36.8,34.1,30.10,NE,46,4.0,5.0,90,0.07,,,0.53,Wunderground v.1.15,2013-12-07 06:06:00,
2013-12-07 01:08:00,36.8,34.1,30.10,NNW,335,1.0,5.0,90,0.07,,,0.53,Wunderground v.1.15,2013-12-07 06:08:00,
2013-12-07 01:10:00,36.8,34.1,30.10,North,355,4.0,5.0,90,0.07,,,0.53,Wunderground v.1.15,2013-12-07 06:10:00,
2013-12-07 01:11:00,36.8,34.1,30.10,NNE,32,2.0,5.0,90,0.07,,,0.53,Wunderground v.1.15,2013-12-07 06:11:00,
2013-12-07 01:12:00,36.8,34.1,30.10,North,11,2.0,3.0,90,0.07,,,0.53,Wunderground v.1.15,2013-12-07 06:12:00,
2013-12-07 01:13:00,36.8,34.1,30.11,ENE,78,2.0,3.0,90,0.06,,,0.53,Wunderground v.1.15,2013-12-07 06:13:00,
2013-12-07 01:15:00,36.8,34.1,30.11,NE,50,2.0,3.0,90,0.05,,,0.54,Wunderground v.1.15,2013-12-07 06:15:00,
2013-12-07 01:17:00,36.9,34.2,30.11,North,5,4.0,4.0,90,0.05,,,0.54,Wunderground v.1.15,2013-12-07 06:17:00,
2013-12-07 01:18:00,36.9,34.2,30.11,NNE,30,6.0,6.0,90,0.05,,,0.54,Wunderground v.1.15,2013-12-07 06:18:00,
2013-12-07 01:19:00,36.9,34.2,30.11,NW,321,4.0,6.0,90,0.05,,,0.54,Wunderground v.1.15,2013-12-07 06:19:00,
2013-12-07 01:20:00,36.9,34.2,30.11,NNE,29,5.0,6.0,90,0.05,,,0.54,Wunderground v.1.15,2013-12-07 06:20:00,
2013-12-07 01:21:00,36.9,34.2,30.11,NNE,29,3.0,6.0,90,0.05,,,0.54,Wunderground v.1.15,2013-12-07 06:21:00,
2013-12-07 01:24:00,36.9,34.2,30.10,NNE,26,5.0,6.0,90,0.05,,,0.54,Wunderground v.1.15,2013-12-07 06:24:00,
2013-12-07 01:26:00,36.9,34.0,30.10,North,5,4.0,6.0,89,0.05,,,0.54,Wunderground v.1.15,2013-12-07 06:26:00,
2013-12-07 01:27:00,36.9,34.0,30.10,NE,51,4.0,6.0,89,0.05,,,0.54,Wunderground v.1.15,2013-12-07 06:27:00,
2013-12-07 01:30:00,36.9,34.0,30.10,NW,319,2.0,6.0,89,0.04,,,0.54,Wunderground v.1.15,2013-12-07 06:30:00,
2013-12-07 01:31:00,36.9,34.0,30.10,NE,40,0.0,6.0,89,0.04,,,0.54,Wunderground v.1.15,2013-12-07 06:31:00,
2013-12-07 01:32:00,36.9,34.0,30.10,North,10,0.0,4.0,89,0.00,,,0.54,Wunderground v.1.15,2013-12-07 06:32:00,
2013-12-07 01:35:00,37.0,34.1,30.09,NE,51,9.0,9.0,89,0.00,,,0.55,Wunderground v.1.15,2013-12-07 06:35:00,
2013-12-07 01:36:00,37.0,34.1,30.09,NNE,32,5.0,9.0,89,0.00,,,0.55,Wunderground v.1.15,2013-12-07 06:36:00,
2013-12-07 01:38:00,37.0,34.1,30.08,NNE,31,6.0,9.0,89,0.00,,,0.55,Wunderground v.1.15,2013-12-07 06:38:00,
2013-12-07 01:39:00,37.0,34.1,30.09,ENE,68,1.0,9.0,89,0.00,,,0.55,Wunderground v.1.15,2013-12-07 06:39:00,
2013-12-07 01:41:00,37.0,34.1,30.11,NE,34,3.0,9.0,89,0.00,,,0.55,Wunderground v.1.15,2013-12-07 06:41:00,
2013-12-07 01:44:00,37.0,34.1,30.11,NE,37,4.0,6.0,89,0.00,,,0.55,Wunderground v.1.15,2013-12-07 06:44:00,
2013-12-07 01:46:00,37.0,34.1,30.11,NE,38,5.0,6.0,89,0.00,,,0.55,Wunderground v.1.15,2013-12-07 06:46:00,
2013-12-07 01:47:00,37.0,34.1,30.12,NE,38,0.0,6.0,89,0.00,,,0.55,Wunderground v.1.15,2013-12-07 06:47:00,
2013-12-07 01:48:00,37.0,34.1,30.12,NW,314,0.0,6.0,89,0.00,,,0.55,Wunderground v.1.15,2013-12-07 06:48:00,
2013-12-07 01:49:00,37.0,34.1,30.12,North,9,3.0,6.0,89,0.00,,,0.55,Wunderground v.1.15,2013-12-07 06:49:00,
2013-12-07 01:50:00,37.0,34.1,30.12,NW,320,3.0,6.0,89,0.04,,,0.56,Wunderground v.1.15,2013-12-07 06:50:00,
2013-12-07 01:53:00,37.2,34.3,30.12,NNW,347,1.0,6.0,89,0.04,,,0.56,Wunderground v.1.15,2013-12-07 06:53:00,
2013-12-07 01:54:00,37.2,34.3,30.12,NE,38,4.0,6.0,89,0.04,,,0.56,Wunderground v.1.15,2013-12-07 06:54:00,
2013-12-07 01:55:00,37.2,34.3,30.13,NE,46,3.0,6.0,89,0.04,,,0.56,Wunderground v.1.15,2013-12-07 06:55:00,
2013-12-07 01:59:00,37.2,34.3,30.12,NNW,338,1.0,6.0,89,0.04,,,0.56,Wunderground v.1.15,2013-12-07 06:59:00,
2013-12-07 02:00:00,37.2,34.3,30.12,NE,53,6.0,6.0,89,0.04,,,0.56,Wunderground v.1.15,2013-12-07 07:00:00,
2013-12-07 02:01:00,37.2,34.3,30.12,ENE,65,2.0,6.0,89,0.04,,,0.56,Wunderground v.1.15,2013-12-07 07:01:00,
2013-12-07 02:03:00,37.2,34.3,30.12,ENE,57,9.0,9.0,89,0.04,,,0.56,Wunderground v.1.15,2013-12-07 07:03:00,
2013-12-07 02:04:00,37.2,34.3,30.12,NW,315,9.0,9.0,89,0.04,,,0.56,Wunderground v.1.15,2013-12-07 07:04:00,
2013-12-07 02:06:00,37.2,34.3,30.12,NNE,20,3.0,9.0,89,0.04,,,0.56,Wunderground v.1.15,2013-12-07 07:06:00,
2013-12-07 02:09:00,37.2,34.3,30.12,NNE,14,4.0,9.0,89,0.00,,,0.56,Wunderground v.1.15,2013-12-07 07:09:00,
2013-12-07 02:10:00,37.2,34.3,30.12,NE,34,6.0,9.0,89,0.00,,,0.56,Wunderground v.1.15,2013-12-07 07:10:00,
2013-12-07 02:11:00,37.0,34.1,30.12,NNW,344,3.0,9.0,89,0.00,,,0.56,Wunderground v.1.15,2013-12-07 07:11:00,
2013-12-07 02:12:00,37.2,34.3,30.12,NNE,27,10.0,10.0,89,0.00,,,0.57,Wunderground v.1.15,2013-12-07 07:12:00,
2013-12-07 02:14:00,37.0,34.1,30.13,NNW,336,4.0,10.0,89,0.00,,,0.57,Wunderground v.1.15,2013-12-07 07:14:00,
2013-12-07 02:16:00,37.2,34.3,30.13,NW,305,5.0,10.0,89,0.00,,,0.57,Wunderground v.1.15,2013-12-07 07:16:00,
2013-12-07 02:17:00,37.2,34.3,30.14,NW,320,6.0,10.0,89,0.00,,,0.57,Wunderground v.1.15,2013-12-07 07:17:00,
2013-12-07 02:19:00,37.2,34.3,30.14,NW,323,6.0,10.0,89,0.00,,,0.57,Wunderground v.1.15,2013-12-07 07:19:00,
2013-12-07 02:21:00,37.2,34.3,30.14,WNW,288,4.0,10.0,89,0.00,,,0.57,Wunderground v.1.15,2013-12-07 07:21:00,
2013-12-07 02:22:00,37.2,34.3,30.14,NW,312,4.0,4.0,89,0.00,,,0.57,Wunderground v.1.15,2013-12-07 07:22:00,
2013-12-07 02:25:00,37.2,34.3,30.15,NW,309,1.0,11.0,89,0.00,,,0.57,Wunderground v.1.15,2013-12-07 07:25:00,
2013-12-07 02:26:00,37.2,34.3,30.15,NW,314,3.0,11.0,89,0.00,,,0.57,Wunderground v.1.15,2013-12-07 07:26:00,
2013-12-07 02:27:00,37.2,34.3,30.15,NNW,342,3.0,11.0,89,0.00,,,0.57,Wunderground v.1.15,2013-12-07 07:27:00,
2013-12-07 02:30:00,37.2,34.3,30.15,NNW,346,3.0,11.0,89,0.00,,,0.58,Wunderground v.1.15,2013-12-07 07:30:00,
2013-12-07 02:31:00,37.2,34.3,30.15,North,355,2.0,11.0,89,0.00,,,0.58,Wunderground v.1.15,2013-12-07 07:31:00,
2013-12-07 02:32:00,37.2,34.3,30.15,North,9,2.0,3.0,89,0.00,,,0.58,Wunderground v.1.15,2013-12-07 07:32:00,
2013-12-07 02:33:00,37.2,34.3,30.16,NW,325,4.0,7.0,89,0.00,,,0.58,Wunderground v.1.15,2013-12-07 07:33:00,
2013-12-07 02:35:00,37.2,34.3,30.16,NNW,345,9.0,10.0,89,0.00,,,0.58,Wunderground v.1.15,2013-12-07 07:35:00,
2013-12-07 02:36:00,37.0,34.1,30.16,NW,321,4.0,10.0,89,0.09,,,0.59,Wunderground v.1.15,2013-12-07 07:36:00,
2013-12-07 02:37:00,37.0,34.1,30.17,NNW,340,4.0,10.0,89,0.09,,,0.59,Wunderground v.1.15,2013-12-07 07:37:00,
2013-12-07 02:38:00,37.0,34.1,30.17,NW,313,2.0,10.0,89,0.09,,,0.59,Wunderground v.1.15,2013-12-07 07:38:00,
2013-12-07 02:40:00,37.0,34.1,30.17,North,5,7.0,11.0,89,0.09,,,0.59,Wunderground v.1.15,2013-12-07 07:40:00,
2013-12-07 02:41:00,37.0,34.1,30.16,West,275,6.0,11.0,89,0.11,,,0.60,Wunderground v.1.15,2013-12-07 07:41:00,
2013-12-07 02:42:00,37.0,34.1,30.16,NNW,327,5.0,11.0,89,0.11,,,0.60,Wunderground v.1.15,2013-12-07 07:42:00,
2013-12-07 02:43:00,36.9,34.0,30.15,ENE,62,5.0,7.0,89,0.11,,,0.60,Wunderground v.1.15,2013-12-07 07:43:00,
2013-12-07 02:46:00,36.9,34.0,30.15,NNW,336,2.0,10.0,89,0.13,,,0.61,Wunderground v.1.15,2013-12-07 07:46:00,
2013-12-07 02:47:00,36.9,34.0,30.16,NNE,15,7.0,10.0,89,0.13,,,0.61,Wunderground v.1.15,2013-12-07 07:47:00,
2013-12-07 02:48:00,36.9,34.0,30.16,WNW,298,4.0,10.0,89,0.13,,,0.61,Wunderground v.1.15,2013-12-07 07:48:00,
2013-12-07 02:49:00,36.9,34.0,30.16,WNW,302,4.0,10.0,89,0.13,,,0.61,Wunderground v.1.15,2013-12-07 07:49:00,
2013-12-07 02:51:00,36.8,33.9,30.17,North,349,16.0,16.0,89,0.13,,,0.62,Wunderground v.1.15,2013-12-07 07:51:00,
2013-12-07 02:52:00,36.8,33.9,30.18,NE,35,6.0,16.0,89,0.13,,,0.62,Wunderground v.1.15,2013-12-07 07:52:00,
2013-12-07 02:53:00,36.8,33.9,30.17,NW,313,1.0,9.0,89,0.13,,,0.62,Wunderground v.1.15,2013-12-07 07:53:00,
2013-12-07 02:54:00,36.8,33.9,30.17,NNE,15,7.0,9.0,89,0.13,,,0.62,Wunderground v.1.15,2013-12-07 07:54:00,
2013-12-07 02:56:00,36.8,33.9,30.16,WNW,302,6.0,11.0,89,0.10,,,0.62,Wunderground v.1.15,2013-12-07 07:56:00,
2013-12-07 02:57:00,36.6,33.7,30.16,ENE,60,1.0,11.0,89,0.09,,,0.62,Wunderground v.1.15,2013-12-07 07:57:00,
2013-12-07 02:58:00,36.6,33.7,30.15,NNE,16,2.0,11.0,89,0.07,,,0.62,Wunderground v.1.15,2013-12-07 07:58:00,
2013-12-07 02:59:00,36.6,33.7,30.15,NNE,16,1.0,11.0,89,0.07,,,0.62,Wunderground v.1.15,2013-12-07 07:59:00,
2013-12-07 03:01:00,36.6,33.7,30.15,ENE,58,7.0,11.0,89,0.05,,,0.62,Wunderground v.1.15,2013-12-07 08:01:00,
2013-12-07 03:02:00,36.6,33.7,30.14,NNE,30,10.0,11.0,89,0.05,,,0.62,Wunderground v.1.15,2013-12-07 08:02:00,
2013-12-07 03:03:00,36.6,33.7,30.14,North,11,4.0,11.0,89,0.05,,,0.62,Wunderground v.1.15,2013-12-07 08:03:00,
2013-12-07 03:04:00,36.6,33.7,30.14,NE,37,3.0,11.0,89,0.04,,,0.62,Wunderground v.1.15,2013-12-07 08:04:00,
2013-12-07 03:05:00,36.5,33.6,30.14,NNE,13,3.0,11.0,89,0.04,,,0.62,Wunderground v.1.15,2013-12-07 08:05:00,
2013-12-07 03:07:00,36.5,33.6,30.16,NW,316,2.0,12.0,89,0.04,,,0.62,Wunderground v.1.15,2013-12-07 08:07:00,
2013-12-07 03:08:00,36.6,33.7,30.17,North,9,2.0,12.0,89,0.00,,,0.62,Wunderground v.1.15,2013-12-07 08:08:00,
2013-12-07 03:09:00,36.6,33.7,30.17,NNE,18,2.0,12.0,89,0.00,,,0.62,Wunderground v.1.15,2013-12-07 08:09:00,
2013-12-07 03:10:00,36.6,33.7,30.17,NNE,13,5.0,12.0,89,0.00,,,0.62,Wunderground v.1.15,2013-12-07 08:10:00,
2013-12-07 03:12:00,36.6,33.7,30.18,NE,34,0.0,5.0,89,0.00,,,0.62,Wunderground v.1.15,2013-12-07 08:12:00,
2013-12-07 03:13:00,36.6,33.7,30.18,NE,34,1.0,5.0,89,0.00,,,0.62,Wunderground v.1.15,2013-12-07 08:13:00,
2013-12-07 03:14:00,36.6,33.7,30.18,WNW,300,5.0,9.0,89,0.00,,,0.62,Wunderground v.1.15,2013-12-07 08:14:00,
2013-12-07 03:15:00,36.6,33.7,30.18,North,349,4.0,9.0,89,0.00,,,0.62,Wunderground v.1.15,2013-12-07 08:15:00,
2013-12-07 03:16:00,36.6,33.7,30.18,North,349,2.0,9.0,89,0.00,,,0.62,Wunderground v.1.15,2013-12-07 08:16:00,
2013-12-07 03:17:00,36.6,33.7,30.18,North,5,4.0,9.0,89,0.00,,,0.62,Wunderground v.1.15,2013-12-07 08:17:00,
2013-12-07 03:18:00,36.6,33.7,30.18,NNW,340,5.0,9.0,89,0.00,,,0.62,Wunderground v.1.15,2013-12-07 08:18:00,
2013-12-07 03:19:00,36.6,33.7,30.18,North,350,0.0,9.0,89,0.00,,,0.62,Wunderground v.1.15,2013-12-07 08:19:00,
2013-12-07 03:20:00,36.6,33.7,30.18,NNW,348,1.0,9.0,89,0.00,,,0.62,Wunderground v.1.15,2013-12-07 08:20:00,
2013-12-07 03:21:00,36.6,33.7,30.18,North,351,0.0,9.0,89,0.00,,,0.62,Wunderground v.1.15,2013-12-07 08:21:00,
2013-12-07 03:22:00,36.6,33.7,30.17,North,351,0.0,3.0,89,0.00,,,0.62,Wunderground v.1.15,2013-12-07 08:22:00,
2013-12-07 03:23:00,36.6,33.7,30.17,NW,319,1.0,9.0,89,0.00,,,0.63,Wunderground v.1.15,2013-12-07 08:23:00,
2013-12-07 03:24:00,36.6,33.7,30.17,NW,320,4.0,9.0,89,0.00,,,0.63,Wunderground v.1.15,2013-12-07 08:24:00,
2013-12-07 03:25:00,36.6,33.7,30.17,NW,320,2.0,9.0,89,0.00,,,0.63,Wunderground v.1.15,2013-12-07 08:25:00,
2013-12-07 03:26:00,36.6,33.7,30.17,NW,321,0.0,9.0,89,0.00,,,0.63,Wunderground v.1.15,2013-12-07 08:26:00,
2013-12-07 03:27:00,36.6,33.7,30.18,NW,321,4.0,9.0,89,0.00,,,0.63,Wunderground v.1.15,2013-12-07 08:27:00,
2013-12-07 03:28:00,36.6,33.7,30.18,NW,321,3.0,9.0,89,0.00,,,0.63,Wunderground v.1.15,2013-12-07 08:28:00,
2013-12-07 03:29:00,36.6,33.9,30.18,NW,321,0.0,9.0,90,0.00,,,0.63,Wunderground v.1.15,2013-12-07 08:29:00,
2013-12-07 03:30:00,36.6,33.9,30.18,NW,321,1.0,9.0,90,0.00,,,0.63,Wunderground v.1.15,2013-12-07 08:30:00,
2013-12-07 03:32:00,36.6,33.9,30.18,North,10,0.0,2.0,90,0.00,,,0.63,Wunderground v.1.15,2013-12-07 08:32:00,
2013-12-07 03:33:00,36.6,33.9,30.17,NE,51,4.0,5.0,90,0.00,,,0.63,Wunderground v.1.15,2013-12-07 08:33:00,
2013-12-07 03:34:00,36.6,33.9,30.17,NNE,33,9.0,9.0,90,0.00,,,0.63,Wunderground v.1.15,2013-12-07 08:34:00,
2013-12-07 03:35:00,36.6,33.9,30.17,NNW,334,3.0,13.0,90,0.00,,,0.63,Wunderground v.1.15,2013-12-07 08:35:00,
2013-12-07 03:37:00,36.6,33.9,30.17,NNW,347,3.0,13.0,90,0.00,,,0.63,Wunderground v.1.15,2013-12-07 08:37:00,
2013-12-07 03:38:00,36.6,33.9,30.17,ENE,71,2.0,13.0,90,0.00,,,0.63,Wunderground v.1.15,2013-12-07 08:38:00,
2013-12-07 03:39:00,36.6,33.9,30.17,NE,43,7.0,13.0,90,0.00,,,0.63,Wunderground v.1.15,2013-12-07 08:39:00,
2013-12-07 03:40:00,36.6,33.9,30.17,NE,35,5.0,13.0,90,0.00,,,0.63,Wunderground v.1.15,2013-12-07 08:40:00,
2013-12-07 03:41:00,36.6,33.9,30.17,NW,315,4.0,13.0,90,0.00,,,0.63,Wunderground v.1.15,2013-12-07 08:41:00,
2013-12-07 03:42:00,36.6,33.9,30.17,NW,312,3.0,7.0,90,0.00,,,0.63,Wunderground v.1.15,2013-12-07 08:42:00,
2013-12-07 03:43:00,36.6,33.9,30.17,ENE,59,5.0,7.0,90,0.00,,,0.63,Wunderground v.1.15,2013-12-07 08:43:00,
2013-12-07 03:44:00,36.6,33.9,30.17,NNW,343,9.0,9.0,90,0.00,,,0.63,Wunderground v.1.15,2013-12-07 08:44:00,
2013-12-07 03:45:00,36.6,33.9,30.17,NNW,336,3.0,9.0,90,0.00,,,0.63,Wunderground v.1.15,2013-12-07 08:45:00,
2013-12-07 03:46:00,36.6,33.9,30.17,NNW,336,2.0,9.0,90,0.00,,,0.63,Wunderground v.1.15,2013-12-07 08:46:00,
2013-12-07 03:47:00,36.6,34.2,30.17,North,360,2.0,9.0,91,0.00,,,0.63,Wunderground v.1.15,2013-12-07 08:47:00,
2013-12-07 03:49:00,36.6,33.9,30.17,NNW,329,1.0,9.0,90,0.00,,,0.63,Wunderground v.1.15,2013-12-07 08:49:00,
2013-12-07 03:50:00,36.6,33.9,30.17,NNW,329,0.0,9.0,90,0.00,,,0.63,Wunderground v.1.15,2013-12-07 08:50:00,
2013-12-07 03:51:00,36.6,33.9,30.17,NNE,20,6.0,9.0,90,0.00,,,0.63,Wunderground v.1.15,2013-12-07 08:51:00,
2013-12-07 03:53:00,36.5,33.8,30.17,ENE,59,8.0,13.0,90,0.00,,,0.63,Wunderground v.1.15,2013-12-07 08:53:00,
2013-12-07 03:54:00,36.5,33.8,30.18,North,360,7.0,13.0,90,0.00,,,0.63,Wunderground v.1.15,2013-12-07 08:54:00,
2013-12-07 03:55:00,36.5,33.8,30.17,NNW,334,4.0,13.0,90,0.00,,,0.63,Wunderground v.1.15,2013-12-07 08:55:00,
2013-12-07 03:56:00,36.5,33.8,30.17,North,349,5.0,13.0,90,0.00,,,0.63,Wunderground v.1.15,2013-12-07 08:56:00,
2013-12-07 03:58:00,36.3,33.6,30.18,NW,308,7.0,13.0,90,0.00,,,0.63,Wunderground v.1.15,2013-12-07 08:58:00,
2013-12-07 03:59:00,36.3,33.6,30.18,NW,306,3.0,13.0,90,0.00,,,0.63,Wunderground v.1.15,2013-12-07 08:59:00,
2013-12-07 04:00:00,36.3,33.6,30.18,NW,308,0.0,13.0,90,0.00,,,0.63,Wunderground v.1.15,2013-12-07 09:00:00,
2013-12-07 04:01:00,36.3,33.6,30.18,North,10,3.0,13.0,90,0.00,,,0.63,Wunderground v.1.15,2013-12-07 09:01:00,
2013-12-07 04:04:00,36.5,33.8,30.18,North,355,2.0,5.0,90,0.00,,,0.63,Wunderground v.1.15,2013-12-07 09:04:00,
2013-12-07 04:05:00,36.3,33.6,30.18,West,281,0.0,5.0,90,0.00,,,0.63,Wunderground v.1.15,2013-12-07 09:05:00,
2013-12-07 04:06:00,36.3,33.6,30.18,NNE,19,5.0,9.0,90,0.00,,,0.63,Wunderground v.1.15,2013-12-07 09:06:00,
2013-12-07 04:09:00,36.3,33.6,30.19,NNW,336,3.0,9.0,90,0.00,,,0.63,Wunderground v.1.15,2013-12-07 09:09:00,
2013-12-07 04:10:00,36.3,33.6,30.19,NNW,335,2.0,9.0,90,0.00,,,0.63,Wunderground v.1.15,2013-12-07 09:10:00,
2013-12-07 04:11:00,36.3,33.6,30.19,NE,44,6.0,9.0,90,0.00,,,0.63,Wunderground v.1.15,2013-12-07 09:11:00,
2013-12-07 04:14:00,36.3,33.6,30.20,NNW,341,3.0,11.0,90,0.00,,,0.63,Wunderground v.1.15,2013-12-07 09:14:00,
2013-12-07 04:15:00,36.3,33.6,30.20,NNE,16,4.0,11.0,90,0.00,,,0.63,Wunderground v.1.15,2013-12-07 09:15:00,
2013-12-07 04:16:00,36.3,33.6,30.20,NE,38,2.0,11.0,90,0.00,,,0.63,Wunderground v.1.15,2013-12-07 09:16:00,
2013-12-07 04:17:00,36.3,33.6,30.19,NE,38,0.0,11.0,90,0.00,,,0.63,Wunderground v.1.15,2013-12-07 09:17:00,
2013-12-07 04:20:00,36.3,33.6,30.19,NNW,335,5.0,11.0,90,0.00,,,0.63,Wunderground v.1.15,2013-12-07 09:20:00,
2013-12-07 04:21:00,36.3,33.6,30.20,NW,318,0.0,11.0,90,0.00,,,0.63,Wunderground v.1.15,2013-12-07 09:21:00,
2013-12-07 04:22:00,36.3,33.6,30.20,NW,318,0.0,4.0,90,0.00,,,0.63,Wunderground v.1.15,2013-12-07 09:22:00,
2013-12-07 04:26:00,36.3,33.6,30.19,North,360,4.0,4.0,90,0.00,,,0.63,Wunderground v.1.15,2013-12-07 09:26:00,
2013-12-07 04:27:00,36.3,33.6,30.19,NNE,31,5.0,7.0,90,0.00,,,0.63,Wunderground v.1.15,2013-12-07 09:27:00,
2013-12-07 04:31:00,36.3,33.6,30.19,NNE,25,4.0,7.0,90,0.00,,,0.63,Wunderground v.1.15,2013-12-07 09:31:00,
2013-12-07 04:32:00,36.3,33.6,30.19,ENE,67,4.0,4.0,90,0.00,,,0.63,Wunderground v.1.15,2013-12-07 09:32:00,
2013-12-07 04:33:00,36.3,33.6,30.19,North,351,2.0,4.0,90,0.00,,,0.63,Wunderground v.1.15,2013-12-07 09:33:00,
2013-12-07 04:36:00,36.3,33.6,30.19,NW,317,3.0,6.0,90,0.00,,,0.63,Wunderground v.1.15,2013-12-07 09:36:00,
2013-12-07 04:37:00,36.3,33.6,30.19,NW,317,0.0,6.0,90,0.00,,,0.63,Wunderground v.1.15,2013-12-07 09:37:00,
2013-12-07 04:38:00,36.3,33.4,30.19,NW,317,2.0,6.0,89,0.00,,,0.63,Wunderground v.1.15,2013-12-07 09:38:00,
2013-12-07 04:41:00,36.3,33.6,30.19,NW,325,2.0,6.0,90,0.00,,,0.63,Wunderground v.1.15,2013-12-07 09:41:00,
2013-12-07 04:42:00,36.3,33.4,30.19,NW,325,3.0,3.0,89,0.00,,,0.63,Wunderground v.1.15,2013-12-07 09:42:00,
2013-12-07 04:43:00,36.3,33.4,30.19,NNE,17,6.0,6.0,89,0.00,,,0.63,Wunderground v.1.15,2013-12-07 09:43:00,
2013-12-07 04:44:00,36.3,33.4,30.19,NNE,30,2.0,6.0,89,0.00,,,0.63,Wunderground v.1.15,2013-12-07 09:44:00,
2013-12-07 04:47:00,36.3,33.4,30.19,NW,315,5.0,9.0,89,0.00,,,0.63,Wunderground v.1.15,2013-12-07 09:47:00,
2013-12-07 04:48:00,36.3,33.6,30.20,NNW,348,2.0,9.0,90,0.00,,,0.63,Wunderground v.1.15,2013-12-07 09:48:00,
2013-12-07 04:49:00,36.3,33.4,30.20,North,355,2.0,9.0,89,0.00,,,0.63,Wunderground v.1.15,2013-12-07 09:49:00,
2013-12-07 04:52:00,36.3,33.4,30.20,NE,48,6.0,11.0,89,0.00,,,0.63,Wunderground v.1.15,2013-12-07 09:52:00,
2013-12-07 04:53:00,36.3,33.4,30.20,NE,50,1.0,11.0,89,0.00,,,0.63,Wunderground v.1.15,2013-12-07 09:53:00,
2013-12-07 04:54:00,36.3,33.4,30.20,WNW,293,2.0,11.0,89,0.00,,,0.63,Wunderground v.1.15,2013-12-07 09:54:00,
2013-12-07 04:57:00,36.3,33.6,30.19,NW,317,2.0,11.0,90,0.00,,,0.63,Wunderground v.1.15,2013-12-07 09:57:00,
2013-12-07 04:58:00,36.3,33.6,30.19,NW,319,1.0,11.0,90,0.00,,,0.63,Wunderground v.1.15,2013-12-07 09:58:00,
2013-12-07 05:00:00,36.5,33.8,30.19,NW,319,0.0,11.0,90,0.00,,,0.63,Wunderground v.1.15,2013-12-07 10:00:00,
2013-12-07 05:03:00,36.5,33.8,30.20,NW,319,2.0,2.0,90,0.00,,,0.63,Wunderground v.1.15,2013-12-07 10:03:00,
2013-12-07 05:04:00,36.5,33.8,30.20,NNW,344,2.0,4.0,90,0.00,,,0.63,Wunderground v.1.15,2013-12-07 10:04:00,
2013-12-07 05:05:00,36.5,33.8,30.19,NNE,13,0.0,5.0,90,0.00,,,0.63,Wunderground v.1.15,2013-12-07 10:05:00,
2013-12-07 05:08:00,36.5,33.8,30.20,NNE,13,0.0,5.0,90,0.00,,,0.63,Wunderground v.1.15,2013-12-07 10:08:00,
2013-12-07 05:09:00,36.5,33.8,30.20,North,355,2.0,5.0,90,0.00,,,0.63,Wunderground v.1.15,2013-12-07 10:09:00,
2013-12-07 05:10:00,36.5,33.8,30.20,WNW,300,3.0,5.0,90,0.00,,,0.63,Wunderground v.1.15,2013-12-07 10:10:00,
2013-12-07 05:13:00,36.5,33.8,30.20,NW,318,1.0,3.0,90,0.00,,,0.63,Wunderground v.1.15,2013-12-07 10:13:00,
2013-12-07 05:14:00,36.5,33.8,30.20,NW,318,0.0,3.0,90,0.00,,,0.63,Wunderground v.1.15,2013-12-07 10:14:00,
2013-12-07 05:15:00,36.5,33.8,30.20,WNW,289,3.0,3.0,90,0.00,,,0.63,Wunderground v.1.15,2013-12-07 10:15:00,
2013-12-07 05:16:00,36.5,33.8,30.20,NNW,335,0.0,5.0,90,0.00,,,0.63,Wunderground v.1.15,2013-12-07 10:16:00,
2013-12-07 05:18:00,36.5,33.8,30.20,NNW,344,4.0,6.0,90,0.00,,,0.63,Wunderground v.1.15,2013-12-07 10:18:00,
2013-12-07 05:19:00,36.5,33.8,30.20,NNW,344,2.0,6.0,90,0.00,,,0.63,Wunderground v.1.15,2013-12-07 10:19:00,
2013-12-07 05:21:00,36.5,33.8,30.20,NNW,333,0.0,6.0,90,0.00,,,0.63,Wunderground v.1.15,2013-12-07 10:21:00,
2013-12-07 05:24:00,36.5,33.8,30.20,NNW,333,0.0,3.0,90,0.00,,,0.63,Wunderground v.1.15,2013-12-07 10:24:00,
2013-12-07 05:26:00,36.5,33.8,30.20,NW,325,2.0,3.0,90,0.00,,,0.63,Wunderground v.1.15,2013-12-07 10:26:00,
2013-12-07 05:27:00,36.5,33.8,30.20,NNE,15,5.0,5.0,90,0.00,,,0.63,Wunderground v.1.15,2013-12-07 10:27:00,
2013-12-07 05:29:00,36.5,33.8,30.20,NNW,340,5.0,6.0,90,0.00,,,0.63,Wunderground v.1.15,2013-12-07 10:29:00,
2013-12-07 05:31:00,36.5,33.8,30.20,NNW,346,0.0,6.0,90,0.00,,,0.63,Wunderground v.1.15,2013-12-07 10:31:00,
2013-12-07 05:33:00,36.5,33.8,30.20,NNW,339,4.0,4.0,90,0.00,,,0.63,Wunderground v.1.15,2013-12-07 10:33:00,
2013-12-07 05:34:00,36.5,33.8,30.20,NW,305,4.0,5.0,90,0.00,,,0.63,Wunderground v.1.15,2013-12-07 10:34:00,
2013-12-07 05:36:00,36.5,33.8,30.20,North,5,6.0,8.0,90,0.00,,,0.63,Wunderground v.1.15,2013-12-07 10:36:00,
2013-12-07 05:37:00,36.5,33.8,30.20,NW,323,3.0,8.0,90,0.00,,,0.63,Wunderground v.1.15,2013-12-07 10:37:00,
2013-12-07 05:38:00,36.5,33.8,30.21,NNW,348,1.0,8.0,90,0.00,,,0.63,Wunderground v.1.15,2013-12-07 10:38:00,
2013-12-07 05:40:00,36.5,33.8,30.21,NW,322,4.0,8.0,90,0.00,,,0.63,Wunderground v.1.15,2013-12-07 10:40:00,
2013-12-07 05:41:00,36.5,33.8,30.21,North,355,1.0,8.0,90,0.00,,,0.63,Wunderground v.1.15,2013-12-07 10:41:00,
2013-12-07 05:42:00,36.5,33.8,30.21,NNW,345,3.0,4.0,90,0.00,,,0.63,Wunderground v.1.15,2013-12-07 10:42:00,
2013-12-07 05:43:00,36.5,33.8,30.21,NNW,345,1.0,4.0,90,0.00,,,0.63,Wunderground v.1.15,2013-12-07 10:43:00,
2013-12-07 05:45:00,36.5,33.8,30.21,NNW,343,5.0,5.0,90,0.00,,,0.63,Wunderground v.1.15,2013-12-07 10:45:00,
2013-12-07 05:46:00,36.5,33.8,30.21,NNW,342,3.0,7.0,90,0.00,,,0.63,Wunderground v.1.15,2013-12-07 10:46:00,
2013-12-07 05:48:00,36.5,33.8,30.21,NW,311,4.0,7.0,90,0.00,,,0.63,Wunderground v.1.15,2013-12-07 10:48:00,
2013-12-07 05:49:00,36.5,33.8,30.21,NW,311,1.0,7.0,90,0.00,,,0.63,Wunderground v.1.15,2013-12-07 10:49:00,
2013-12-07 05:50:00,36.5,33.8,30.21,NNW,348,3.0,7.0,90,0.00,,,0.63,Wunderground v.1.15,2013-12-07 10:50:00,
2013-12-07 05:51:00,36.5,33.8,30.22,NW,307,6.0,7.0,90,0.00,,,0.63,Wunderground v.1.15,2013-12-07 10:51:00,
2013-12-07 05:52:00,36.5,33.8,30.22,NNW,332,5.0,5.0,90,0.00,,,0.63,Wunderground v.1.15,2013-12-07 10:52:00,
2013-12-07 05:54:00,36.6,33.9,30.22,WNW,298,5.0,9.0,90,0.00,,,0.63,Wunderground v.1.15,2013-12-07 10:54:00,
2013-12-07 05:55:00,36.6,33.7,30.22,NW,325,3.0,9.0,89,0.00,,,0.63,Wunderground v.1.15,2013-12-07 10:55:00,
2013-12-07 05:57:00,36.6,33.7,30.22,WNW,302,2.0,9.0,89,0.00,,,0.63,Wunderground v.1.15,2013-12-07 10:57:00,
2013-12-07 05:58:00,36.6,33.7,30.22,WNW,302,3.0,9.0,89,0.00,,,0.63,Wunderground v.1.15,2013-12-07 10:58:00,
2013-12-07 05:59:00,36.6,33.7,30.22,WNW,302,3.0,9.0,89,0.00,,,0.63,Wunderground v.1.15,2013-12-07 10:59:00,
2013-12-07 06:00:00,36.6,33.7,30.23,WNW,301,3.0,9.0,89,0.00,,,0.63,Wunderground v.1.15,2013-12-07 11:00:00,
2013-12-07 06:01:00,36.6,33.7,30.23,WNW,301,1.0,9.0,89,0.00,,,0.63,Wunderground v.1.15,2013-12-07 11:01:00,
2013-12-07 06:02:00,36.6,33.7,30.23,WNW,301,3.0,3.0,89,0.00,,,0.63,Wunderground v.1.15,2013-12-07 11:02:00,
2013-12-07 06:03:00,36.6,33.7,30.23,WNW,293,6.0,6.0,89,0.00,,,0.63,Wunderground v.1.15,2013-12-07 11:03:00,
2013-12-07 06:04:00,36.6,33.7,30.23,NW,304,3.0,6.0,89,0.00,,,0.63,Wunderground v.1.15,2013-12-07 11:04:00,
2013-12-07 06:06:00,36.6,33.7,30.23,NNW,340,5.0,6.0,89,0.00,,,0.63,Wunderground v.1.15,2013-12-07 11:06:00,
2013-12-07 06:07:00,36.6,33.7,30.23,WNW,294,2.0,6.0,89,0.00,,,0.63,Wunderground v.1.15,2013-12-07 11:07:00,
2013-12-07 06:08:00,36.6,33.7,30.23,WNW,301,4.0,6.0,89,0.00,,,0.63,Wunderground v.1.15,2013-12-07 11:08:00,
2013-12-07 06:09:00,36.6,33.7,30.23,NW,318,2.0,6.0,89,0.00,,,0.63,Wunderground v.1.15,2013-12-07 11:09:00,
2013-12-07 06:10:00,36.6,33.7,30.23,NW,318,3.0,6.0,89,0.00,,,0.63,Wunderground v.1.15,2013-12-07 11:10:00,
2013-12-07 06:11:00,36.6,33.7,30.23,NNW,327,4.0,6.0,89,0.00,,,0.63,Wunderground v.1.15,2013-12-07 11:11:00,
2013-12-07 06:13:00,36.6,33.7,30.23,NNW,327,1.0,3.0,89,0.00,,,0.63,Wunderground v.1.15,2013-12-07 11:13:00,
2013-12-07 06:14:00,36.6,33.7,30.23,NNW,327,1.0,3.0,89,0.00,,,0.63,Wunderground v.1.15,2013-12-07 11:14:00,
2013-12-07 06:16:00,36.6,33.7,30.23,NNW,327,3.0,4.0,89,0.00,,,0.63,Wunderground v.1.15,2013-12-07 11:16:00,
2013-12-07 06:18:00,36.6,33.7,30.23,NW,306,2.0,5.0,89,0.00,,,0.63,Wunderground v.1.15,2013-12-07 11:18:00,
2013-12-07 06:19:00,36.6,33.7,30.23,NW,311,6.0,6.0,89,0.00,,,0.63,Wunderground v.1.15,2013-12-07 11:19:00,
2013-12-07 06:20:00,36.6,33.7,30.23,NNW,334,3.0,6.0,89,0.00,,,0.63,Wunderground v.1.15,2013-12-07 11:20:00,
2013-12-07 06:22:00,36.6,33.7,30.23,WNW,298,2.0,2.0,89,0.00,,,0.63,Wunderground v.1.15,2013-12-07 11:22:00,
2013-12-07 06:23:00,36.6,33.7,30.23,WNW,302,3.0,5.0,89,0.00,,,0.63,Wunderground v.1.15,2013-12-07 11:23:00,
2013-12-07 06:24:00,36.6,33.7,30.23,NNW,332,5.0,5.0,89,0.00,,,0.63,Wunderground v.1.15,2013-12-07 11:24:00,
2013-12-07 06:25:00,36.6,33.7,30.23,NW,306,2.0,5.0,89,0.00,,,0.63,Wunderground v.1.15,2013-12-07 11:25:00,
2013-12-07 06:27:00,36.6,33.7,30.24,NW,311,4.0,5.0,89,0.00,,,0.63,Wunderground v.1.15,2013-12-07 11:27:00,
2013-12-07 06:28:00,36.6,33.7,30.24,NW,311,1.0,5.0,89,0.00,,,0.63,Wunderground v.1.15,2013-12-07 11:28:00,
2013-12-07 06:29:00,36.6,33.7,30.24,WNW,298,3.0,5.0,89,0.00,,,0.63,Wunderground v.1.15,2013-12-07 11:29:00,
2013-12-07 06:31:00,36.6,33.7,30.24,North,9,1.0,6.0,89,0.00,,,0.63,Wunderground v.1.15,2013-12-07 11:31:00,
2013-12-07 06:32:00,36.6,33.7,30.24,NNW,344,2.0,5.0,89,0.00,,,0.63,Wunderground v.1.15,2013-12-07 11:32:00,
2013-12-07 06:33:00,36.6,33.7,30.24,NNW,327,7.0,7.0,89,0.00,,,0.63,Wunderground v.1.15,2013-12-07 11:33:00,
2013-12-07 06:34:00,36.6,33.7,30.24,NNW,340,3.0,7.0,89,0.00,,,0.63,Wunderground v.1.15,2013-12-07 11:34:00,
2013-12-07 06:36:00,36.6,33.7,30.24,NNW,331,2.0,7.0,89,0.00,,,0.63,Wunderground v.1.15,2013-12-07 11:36:00,
2013-12-07 06:37:00,36.8,33.9,30.24,NW,304,3.0,7.0,89,0.00,,,0.63,Wunderground v.1.15,2013-12-07 11:37:00,
2013-12-07 06:38:00,36.8,33.9,30.24,NW,316,3.0,7.0,89,0.00,,,0.63,Wunderground v.1.15,2013-12-07 11:38:00,
2013-12-07 06:40:00,36.8,33.9,30.24,NW,323,2.0,7.0,89,0.00,,,0.63,Wunderground v.1.15,2013-12-07 11:40:00,
2013-12-07 06:41:00,36.8,33.9,30.24,NW,323,2.0,7.0,89,0.00,,,0.63,Wunderground v.1.15,2013-12-07 11:41:00,
2013-12-07 06:42:00,36.8,33.9,30.24,WNW,292,5.0,5.0,89,0.00,,,0.63,Wunderground v.1.15,2013-12-07 11:42:00,
2013-12-07 06:43:00,36.8,33.6,30.24,NW,317,6.0,7.0,88,0.00,,,0.63,Wunderground v.1.15,2013-12-07 11:43:00,
2013-12-07 06:44:00,36.8,33.6,30.24,WNW,302,7.0,7.0,88,0.00,,,0.63,Wunderground v.1.15,2013-12-07 11:44:00,
2013-12-07 06:45:00,36.6,33.4,30.24,North,355,4.0,7.0,88,0.00,,,0.63,Wunderground v.1.15,2013-12-07 11:45:00,
2013-12-07 06:46:00,36.6,33.4,30.24,NNW,334,4.0,7.0,88,0.00,,,0.63,Wunderground v.1.15,2013-12-07 11:46:00,
2013-12-07 06:47:00,36.6,33.4,30.24,NW,308,1.0,7.0,88,0.00,,,0.63,Wunderground v.1.15,2013-12-07 11:47:00,
2013-12-07 06:48:00,36.6,33.4,30.24,NW,308,2.0,7.0,88,0.00,,,0.63,Wunderground v.1.15,2013-12-07 11:48:00,
2013-12-07 06:49:00,36.8,33.6,30.24,WNW,298,2.0,7.0,88,0.00,,,0.63,Wunderground v.1.15,2013-12-07 11:49:00,
2013-12-07 06:50:00,36.8,33.6,30.24,WNW,298,3.0,7.0,88,0.00,,,0.63,Wunderground v.1.15,2013-12-07 11:50:00,
2013-12-07 06:51:00,36.8,33.6,30.24,WNW,301,0.0,7.0,88,0.00,,,0.63,Wunderground v.1.15,2013-12-07 11:51:00,
2013-12-07 06:52:00,36.8,33.6,30.24,WNW,301,1.0,3.0,88,0.00,,,0.63,Wunderground v.1.15,2013-12-07 11:52:00,
2013-12-07 06:53:00,36.8,33.6,30.24,North,5,2.0,3.0,88,0.00,,,0.63,Wunderground v.1.15,2013-12-07 11:53:00,
2013-12-07 06:54:00,36.8,33.6,30.24,North,360,2.0,3.0,88,0.00,,,0.63,Wunderground v.1.15,2013-12-07 11:54:00,
2013-12-07 06:56:00,36.8,33.6,30.25,NW,321,4.0,4.0,88,0.00,,,0.63,Wunderground v.1.15,2013-12-07 11:56:00,
2013-12-07 06:58:00,36.8,33.6,30.25,North,5,0.0,4.0,88,0.00,,,0.63,Wunderground v.1.15,2013-12-07 11:58:00,
2013-12-07 06:59:00,36.8,33.6,30.25,NW,313,3.0,5.0,88,0.00,,,0.63,Wunderground v.1.15,2013-12-07 11:59:00,
2013-12-07 07:00:00,36.8,33.6,30.25,WNW,297,4.0,5.0,88,0.00,,,0.63,Wunderground v.1.15,2013-12-07 12:00:00,
2013-12-07 07:01:00,36.8,33.6,30.25,NW,311,3.0,5.0,88,0.00,,,0.63,Wunderground v.1.15,2013-12-07 12:01:00,
2013-12-07 07:03:00,36.8,33.6,30.25,NW,323,2.0,8.0,88,0.00,,,0.63,Wunderground v.1.15,2013-12-07 12:03:00,
2013-12-07 07:04:00,36.8,33.6,30.25,North,355,2.0,8.0,88,0.00,,,0.63,Wunderground v.1.15,2013-12-07 12:04:00,
2013-12-07 07:05:00,36.8,33.6,30.25,WNW,288,4.0,8.0,88,0.00,,,0.63,Wunderground v.1.15,2013-12-07 12:05:00,
2013-12-07 07:06:00,36.8,33.6,30.25,WNW,288,2.0,8.0,88,0.00,,,0.63,Wunderground v.1.15,2013-12-07 12:06:00,
2013-12-07 07:08:00,36.8,33.6,30.26,WNW,288,0.0,8.0,88,0.00,,,0.63,Wunderground v.1.15,2013-12-07 12:08:00,
2013-12-07 07:10:00,36.8,33.6,30.26,WNW,289,4.0,8.0,88,0.00,,,0.63,Wunderground v.1.15,2013-12-07 12:10:00,
2013-12-07 07:11:00,36.8,33.6,30.25,NW,322,4.0,8.0,88,0.00,,,0.63,Wunderground v.1.15,2013-12-07 12:11:00,
2013-12-07 07:14:00,36.8,33.6,30.25,WNW,292,1.0,5.0,88,0.00,,,0.63,Wunderground v.1.15,2013-12-07 12:14:00,
2013-12-07 07:15:00,36.8,33.6,30.26,NNW,334,2.0,5.0,88,0.00,,,0.63,Wunderground v.1.15,2013-12-07 12:15:00,
2013-12-07 07:16:00,36.8,33.6,30.26,NW,308,2.0,5.0,88,0.00,,,0.63,Wunderground v.1.15,2013-12-07 12:16:00,
2013-12-07 07:17:00,36.8,33.6,30.26,WNW,289,4.0,5.0,88,0.00,,,0.63,Wunderground v.1.15,2013-12-07 12:17:00,
2013-12-07 07:19:00,36.8,33.6,30.26,WNW,290,0.0,5.0,88,0.00,,,0.63,Wunderground v.1.15,2013-12-07 12:19:00,
2013-12-07 07:20:00,36.8,33.6,30.26,WNW,290,3.0,5.0,88,0.00,,,0.63,Wunderground v.1.15,2013-12-07 12:20:00,
2013-12-07 07:21:00,36.8,33.6,30.26,WNW,296,3.0,5.0,88,0.00,,,0.63,Wunderground v.1.15,2013-12-07 12:21:00,
2013-12-07 07:22:00,36.8,33.6,30.26,WNW,296,2.0,4.0,88,0.00,,,0.63,Wunderground v.1.15,2013-12-07 12:22:00,
2013-12-07 07:24:00,36.8,33.6,30.26,WNW,296,4.0,5.0,88,0.00,,,0.63,Wunderground v.1.15,2013-12-07 12:24:00,
2013-12-07 07:25:00,36.8,33.6,30.26,WNW,296,2.0,5.0,88,0.00,,,0.63,Wunderground v.1.15,2013-12-07 12:25:00,
2013-12-07 07:26:00,36.8,33.6,30.26,WNW,296,3.0,5.0,88,0.00,,,0.63,Wunderground v.1.15,2013-12-07 12:26:00,
2013-12-07 07:27:00,36.8,33.6,30.26,WNW,296,3.0,5.0,88,0.00,,,0.63,Wunderground v.1.15,2013-12-07 12:27:00,
2013-12-07 07:30:00,36.8,33.6,30.26,NNW,339,0.0,6.0,88,0.00,,,0.63,Wunderground v.1.15,2013-12-07 12:30:00,
2013-12-07 07:31:00,36.8,33.6,30.26,NNW,339,0.0,6.0,88,0.00,,,0.63,Wunderground v.1.15,2013-12-07 12:31:00,
2013-12-07 07:32:00,36.8,33.6,30.26,WNW,294,2.0,4.0,88,0.00,,,0.63,Wunderground v.1.15,2013-12-07 12:32:00,
2013-12-07 07:35:00,36.8,33.6,30.26,NW,304,2.0,4.0,88,0.00,,,0.63,Wunderground v.1.15,2013-12-07 12:35:00,
2013-12-07 07:36:00,36.8,33.6,30.26,WNW,299,4.0,4.0,88,0.00,,,0.63,Wunderground v.1.15,2013-12-07 12:36:00,
2013-12-07 07:37:00,36.8,33.3,30.26,WNW,298,2.0,4.0,87,0.00,,,0.63,Wunderground v.1.15,2013-12-07 12:37:00,
2013-12-07 07:38:00,36.8,33.6,30.26,NW,317,3.0,4.0,88,0.00,,,0.63,Wunderground v.1.15,2013-12-07 12:38:00,
2013-12-07 07:40:00,36.8,33.3,30.26,NW,311,1.0,4.0,87,0.00,,,0.00,Wunderground v.1.15,2013-12-07 12:40:00,
2013-12-07 07:41:00,36.8,33.3,30.26,WNW,299,5.0,5.0,87,0.00,,,0.00,Wunderground v.1.15,2013-12-07 12:41:00,
2013-12-07 07:42:00,36.8,33.3,30.26,WNW,300,2.0,2.0,87,0.00,,,0.00,Wunderground v.1.15,2013-12-07 12:42:00,
2013-12-07 07:43:00,36.8,33.3,30.26,NW,321,5.0,5.0,87,0.00,,,0.00,Wunderground v.1.15,2013-12-07 12:43:00,
2013-12-07 07:44:00,36.8,33.3,30.26,NNW,345,1.0,6.0,87,0.00,,,0.00,Wunderground v.1.15,2013-12-07 12:44:00,
2013-12-07 07:46:00,36.8,33.3,30.26,NW,319,6.0,6.0,87,0.00,,,0.00,Wunderground v.1.15,2013-12-07 12:46:00,
2013-12-07 07:47:00,36.8,33.3,30.26,NW,311,1.0,6.0,87,0.00,,,0.00,Wunderground v.1.15,2013-12-07 12:47:00,
2013-12-07 07:48:00,36.8,33.3,30.26,NW,311,3.0,6.0,87,0.00,,,0.00,Wunderground v.1.15,2013-12-07 12:48:00,
2013-12-07 07:49:00,36.8,33.3,30.27,NW,311,1.0,6.0,87,0.00,,,0.00,Wunderground v.1.15,2013-12-07 12:49:00,
2013-12-07 07:51:00,36.9,33.4,30.27,NW,306,6.0,6.0,87,0.00,,,0.00,Wunderground v.1.15,2013-12-07 12:51:00,
2013-12-07 07:53:00,36.9,33.4,30.27,NW,309,4.0,6.0,87,0.00,,,0.00,Wunderground v.1.15,2013-12-07 12:53:00,
2013-12-07 07:55:00,36.9,33.4,30.27,WNW,300,3.0,6.0,87,0.00,,,0.00,Wunderground v.1.15,2013-12-07 12:55:00,
2013-12-07 07:56:00,36.9,33.4,30.27,WNW,300,5.0,6.0,87,0.00,,,0.00,Wunderground v.1.15,2013-12-07 12:56:00,
2013-12-07 07:58:00,36.9,33.4,30.27,West,276,5.0,6.0,87,0.00,,,0.00,Wunderground v.1.15,2013-12-07 12:58:00,
2013-12-07 07:59:00,36.9,33.4,30.27,West,281,1.0,6.0,87,0.00,,,0.00,Wunderground v.1.15,2013-12-07 12:59:00,
2013-12-07 08:01:00,37.0,33.5,30.27,North,355,1.0,6.0,87,0.00,,,0.00,Wunderground v.1.15,2013-12-07 13:01:00,
2013-12-07 08:02:00,37.0,33.5,30.27,NW,310,2.0,4.0,87,0.00,,,0.00,Wunderground v.1.15,2013-12-07 13:02:00,
2013-12-07 08:03:00,37.0,33.5,30.27,WNW,301,2.0,6.0,87,0.00,,,0.00,Wunderground v.1.15,2013-12-07 13:03:00,
2013-12-07 08:05:00,37.0,33.5,30.27,WNW,303,1.0,6.0,87,0.00,,,0.00,Wunderground v.1.15,2013-12-07 13:05:00,
2013-12-07 08:06:00,37.0,33.5,30.28,NW,310,3.0,6.0,87,0.00,,,0.00,Wunderground v.1.15,2013-12-07 13:06:00,
2013-12-07 08:07:00,37.0,33.8,30.28,NW,310,1.0,6.0,88,0.00,,,0.00,Wunderground v.1.15,2013-12-07 13:07:00,
2013-12-07 08:08:00,37.2,34.0,30.27,WNW,288,4.0,6.0,88,0.00,,,0.00,Wunderground v.1.15,2013-12-07 13:08:00,
2013-12-07 08:10:00,37.2,34.0,30.28,WNW,297,3.0,10.0,88,0.00,,,0.00,Wunderground v.1.15,2013-12-07 13:10:00,
2013-12-07 08:12:00,37.2,34.0,30.28,NNW,346,5.0,5.0,88,0.00,,,0.00,Wunderground v.1.15,2013-12-07 13:12:00,
2013-12-07 08:13:00,37.2,34.0,30.28,North,351,5.0,5.0,88,0.00,,,0.00,Wunderground v.1.15,2013-12-07 13:13:00,
2013-12-07 08:15:00,37.2,34.0,30.28,NNW,328,7.0,13.0,88,0.00,,,0.00,Wunderground v.1.15,2013-12-07 13:15:00,
2013-12-07 08:17:00,37.2,34.0,30.28,NW,306,5.0,13.0,88,0.00,,,0.00,Wunderground v.1.15,2013-12-07 13:17:00,
2013-12-07 08:18:00,37.2,34.0,30.28,WNW,296,4.0,13.0,88,0.00,,,0.00,Wunderground v.1.15,2013-12-07 13:18:00,
2013-12-07 08:21:00,37.2,33.7,30.29,NW,309,6.0,13.0,87,0.00,,,0.00,Wunderground v.1.15,2013-12-07 13:21:00,
2013-12-07 08:22:00,37.2,33.7,30.28,NW,310,10.0,11.0,87,0.00,,,0.00,Wunderground v.1.15,2013-12-07 13:22:00,
2013-12-07 08:24:00,37.2,33.7,30.28,WNW,300,7.0,11.0,87,0.00,,,0.00,Wunderground v.1.15,2013-12-07 13:24:00,
2013-12-07 08:27:00,37.0,33.5,30.29,NNW,337,3.0,14.0,87,0.00,,,0.00,Wunderground v.1.15,2013-12-07 13:27:00,
2013-12-07 08:28:00,37.0,33.5,30.29,WNW,284,9.0,14.0,87,0.00,,,0.00,Wunderground v.1.15,2013-12-07 13:28:00,
2013-12-07 08:29:00,37.0,33.2,30.29,NW,318,9.0,14.0,86,0.00,,,0.00,Wunderground v.1.15,2013-12-07 13:29:00,
2013-12-07 08:32:00,37.0,33.2,30.29,NW,325,6.0,9.0,86,0.00,,,0.00,Wunderground v.1.15,2013-12-07 13:32:00,
2013-12-07 08:33:00,37.0,33.2,30.29,NW,310,7.0,11.0,86,0.00,,,0.00,Wunderground v.1.15,2013-12-07 13:33:00,
2013-12-07 08:34:00,37.0,33.2,30.29,West,275,1.0,11.0,86,0.00,,,0.00,Wunderground v.1.15,2013-12-07 13:34:00,
2013-12-07 08:35:00,37.0,33.2,30.29,WNW,300,3.0,11.0,86,0.00,,,0.00,Wunderground v.1.15,2013-12-07 13:35:00,
2013-12-07 08:37:00,37.0,33.2,30.29,NW,316,6.0,11.0,86,0.00,,,0.00,Wunderground v.1.15,2013-12-07 13:37:00,
2013-12-07 08:38:00,37.0,33.2,30.29,NW,312,9.0,11.0,86,0.00,,,0.00,Wunderground v.1.15,2013-12-07 13:38:00,
2013-12-07 08:39:00,37.0,33.2,30.30,NW,318,2.0,11.0,86,0.00,,,0.00,Wunderground v.1.15,2013-12-07 13:39:00,
2013-12-07 08:40:00,37.0,33.2,30.29,WNW,284,2.0,11.0,86,0.00,,,0.00,Wunderground v.1.15,2013-12-07 13:40:00,
2013-12-07 08:43:00,37.0,33.2,30.29,NW,319,1.0,5.0,86,0.00,,,0.00,Wunderground v.1.15,2013-12-07 13:43:00,
2013-12-07 08:44:00,37.2,33.4,30.29,NW,319,0.0,5.0,86,0.00,,,0.00,Wunderground v.1.15,2013-12-07 13:44:00,
2013-12-07 08:45:00,37.2,33.4,30.30,NW,308,6.0,6.0,86,0.00,,,0.00,Wunderground v.1.15,2013-12-07 13:45:00,
2013-12-07 08:48:00,37.2,33.1,30.29,WNW,288,3.0,7.0,85,0.00,,,0.00,Wunderground v.1.15,2013-12-07 13:48:00,
2013-12-07 08:49:00,37.2,33.1,30.29,NW,324,5.0,7.0,85,0.00,,,0.00,Wunderground v.1.15,2013-12-07 13:49:00,
2013-12-07 08:51:00,37.2,33.1,30.30,NNW,348,0.0,7.0,85,0.00,,,0.00,Wunderground v.1.15,2013-12-07 13:51:00,
2013-12-07 08:53:00,37.3,33.2,30.30,NNW,328,3.0,5.0,85,0.00,,,0.00,Wunderground v.1.15,2013-12-07 13:53:00,
2013-12-07 08:54:00,37.3,33.2,30.30,WNW,292,4.0,7.0,85,0.00,,,0.00,Wunderground v.1.15,2013-12-07 13:54:00,
2013-12-07 08:55:00,37.3,33.2,30.30,WNW,292,3.0,7.0,85,0.00,,,0.00,Wunderground v.1.15,2013-12-07 13:55:00,
2013-12-07 08:56:00,37.3,32.9,30.30,WNW,298,4.0,9.0,84,0.00,,,0.00,Wunderground v.1.15,2013-12-07 13:56:00,
2013-12-07 08:57:00,37.3,32.9,30.30,NW,321,6.0,9.0,84,0.00,,,0.00,Wunderground v.1.15,2013-12-07 13:57:00,
2013-12-07 08:58:00,37.3,32.9,30.30,NW,309,5.0,9.0,84,0.00,,,0.00,Wunderground v.1.15,2013-12-07 13:58:00,
2013-12-07 08:59:00,37.3,32.9,30.30,NW,312,4.0,9.0,84,0.00,,,0.00,Wunderground v.1.15,2013-12-07 13:59:00,
2013-12-07 09:00:00,37.3,32.9,30.30,NNW,342,4.0,9.0,84,0.00,,,0.00,Wunderground v.1.15,2013-12-07 14:00:00,
2013-12-07 09:01:00,37.3,32.6,30.31,NW,316,3.0,9.0,83,0.00,,,0.00,Wunderground v.1.15,2013-12-07 14:01:00,
2013-12-07 09:03:00,37.3,32.6,30.31,WNW,298,0.0,5.0,83,0.00,,,0.00,Wunderground v.1.15,2013-12-07 14:03:00,
2013-12-07 09:04:00,37.3,32.6,30.31,NW,317,3.0,5.0,83,0.00,,,0.00,Wunderground v.1.15,2013-12-07 14:04:00,
2013-12-07 09:05:00,37.5,32.8,30.31,NW,306,5.0,5.0,83,0.00,,,0.00,Wunderground v.1.15,2013-12-07 14:05:00,
2013-12-07 09:07:00,37.5,32.5,30.30,NW,313,7.0,10.0,82,0.00,,,0.00,Wunderground v.1.15,2013-12-07 14:07:00,
2013-12-07 09:08:00,37.3,32.3,30.30,NW,306,5.0,10.0,82,0.00,,,0.00,Wunderground v.1.15,2013-12-07 14:08:00,
2013-12-07 09:09:00,37.3,32.0,30.31,WNW,288,4.0,10.0,81,0.00,,,0.00,Wunderground v.1.15,2013-12-07 14:09:00,
2013-12-07 09:10:00,37.3,32.0,30.31,WNW,290,3.0,10.0,81,0.00,,,0.00,Wunderground v.1.15,2013-12-07 14:10:00,
2013-12-07 09:12:00,37.5,32.5,30.31,WNW,299,2.0,4.0,82,0.00,,,0.00,Wunderground v.1.15,2013-12-07 14:12:00,
2013-12-07 09:13:00,37.5,32.2,30.31,NW,311,4.0,10.0,81,0.00,,,0.00,Wunderground v.1.15,2013-12-07 14:13:00,
2013-12-07 09:14:00,37.5,32.2,30.31,WNW,288,1.0,10.0,81,0.00,,,0.00,Wunderground v.1.15,2013-12-07 14:14:00,
2013-12-07 09:15:00,37.5,32.2,30.31,WNW,288,4.0,10.0,81,0.00,,,0.00,Wunderground v.1.15,2013-12-07 14:15:00,
2013-12-07 09:18:00,37.5,32.2,30.31,NNW,327,1.0,10.0,81,0.00,,,0.00,Wunderground v.1.15,2013-12-07 14:18:00,
2013-12-07 09:19:00,37.5,32.2,30.31,NNW,327,2.0,10.0,81,0.00,,,0.00,Wunderground v.1.15,2013-12-07 14:19:00,
2013-12-07 09:20:00,37.5,32.2,30.31,NW,304,4.0,10.0,81,0.00,,,0.00,Wunderground v.1.15,2013-12-07 14:20:00,
2013-12-07 09:21:00,37.5,32.2,30.31,NW,304,3.0,10.0,81,0.00,,,0.00,Wunderground v.1.15,2013-12-07 14:21:00,
2013-12-07 09:23:00,37.5,32.2,30.31,NW,304,3.0,4.0,81,0.00,,,0.00,Wunderground v.1.15,2013-12-07 14:23:00,
2013-12-07 09:25:00,37.6,32.3,30.31,NW,304,3.0,4.0,81,0.00,,,0.00,Wunderground v.1.15,2013-12-07 14:25:00,
2013-12-07 09:26:00,37.6,32.3,30.31,North,355,1.0,4.0,81,0.00,,,0.00,Wunderground v.1.15,2013-12-07 14:26:00,
2013-12-07 09:28:00,37.6,32.3,30.31,NW,309,2.0,6.0,81,0.00,,,0.00,Wunderground v.1.15,2013-12-07 14:28:00,
2013-12-07 09:29:00,37.6,32.3,30.31,NW,323,0.0,6.0,81,0.00,,,0.00,Wunderground v.1.15,2013-12-07 14:29:00,
2013-12-07 09:30:00,37.6,32.3,30.31,NW,322,3.0,6.0,81,0.00,,,0.00,Wunderground v.1.15,2013-12-07 14:30:00,
2013-12-07 09:31:00,37.6,32.0,30.31,NW,305,9.0,9.0,80,0.00,,,0.00,Wunderground v.1.15,2013-12-07 14:31:00,
2013-12-07 09:33:00,37.6,32.0,30.31,NNW,339,6.0,6.0,80,0.00,,,0.00,Wunderground v.1.15,2013-12-07 14:33:00,
2013-12-07 09:34:00,37.6,32.0,30.31,WNW,301,5.0,6.0,80,0.00,,,0.00,Wunderground v.1.15,2013-12-07 14:34:00,
2013-12-07 09:35:00,37.6,32.0,30.31,WNW,294,5.0,11.0,80,0.00,,,0.00,Wunderground v.1.15,2013-12-07 14:35:00,
2013-12-07 09:36:00,37.6,32.0,30.31,WSW,250,2.0,11.0,80,0.00,,,0.00,Wunderground v.1.15,2013-12-07 14:36:00,
2013-12-07 09:38:00,37.8,32.2,30.31,NW,322,5.0,11.0,80,0.00,,,0.00,Wunderground v.1.15,2013-12-07 14:38:00,
2013-12-07 09:39:00,37.8,32.2,30.32,West,281,8.0,11.0,80,0.00,,,0.00,Wunderground v.1.15,2013-12-07 14:39:00,
2013-12-07 09:40:00,37.6,31.4,30.32,NW,313,7.0,11.0,78,0.00,,,0.00,Wunderground v.1.15,2013-12-07 14:40:00,
2013-12-07 09:41:00,37.6,31.4,30.32,NW,304,6.0,11.0,78,0.00,,,0.00,Wunderground v.1.15,2013-12-07 14:41:00,
2013-12-07 09:43:00,37.5,30.9,30.32,NNW,336,4.0,12.0,77,0.00,,,0.00,Wunderground v.1.15,2013-12-07 14:43:00,
2013-12-07 09:44:00,37.5,30.9,30.32,West,265,7.0,12.0,77,0.00,,,0.00,Wunderground v.1.15,2013-12-07 14:44:00,
2013-12-07 09:45:00,37.5,30.9,30.32,NW,309,4.0,12.0,77,0.00,,,0.00,Wunderground v.1.15,2013-12-07 14:45:00,
2013-12-07 09:46:00,37.5,30.9,30.32,NNW,327,6.0,12.0,77,0.00,,,0.00,Wunderground v.1.15,2013-12-07 14:46:00,
2013-12-07 09:47:00,37.5,30.6,30.32,NNW,340,8.0,13.0,76,0.00,,,0.00,Wunderground v.1.15,2013-12-07 14:47:00,
2013-12-07 09:49:00,37.5,30.6,30.32,West,280,4.0,13.0,76,0.00,,,0.00,Wunderground v.1.15,2013-12-07 14:49:00,
2013-12-07 09:50:00,37.6,31.0,30.32,WNW,303,4.0,13.0,77,0.00,,,0.00,Wunderground v.1.15,2013-12-07 14:50:00,
2013-12-07 09:51:00,37.6,30.7,30.32,NW,312,2.0,13.0,76,0.00,,,0.00,Wunderground v.1.15,2013-12-07 14:51:00,
2013-12-07 09:52:00,37.5,30.6,30.32,NNW,341,5.0,6.0,76,0.00,,,0.00,Wunderground v.1.15,2013-12-07 14:52:00,
2013-12-07 09:54:00,37.5,30.6,30.32,NNW,338,6.0,11.0,76,0.00,,,0.00,Wunderground v.1.15,2013-12-07 14:54:00,
2013-12-07 09:55:00,37.6,30.7,30.32,NW,304,4.0,11.0,76,0.00,,,0.00,Wunderground v.1.15,2013-12-07 14:55:00,
2013-12-07 09:56:00,37.6,30.7,30.32,WNW,300,4.0,11.0,76,0.00,,,0.00,Wunderground v.1.15,2013-12-07 14:56:00,
2013-12-07 09:57:00,37.6,30.7,30.32,WNW,292,9.0,11.0,76,0.00,,,0.00,Wunderground v.1.15,2013-12-07 14:57:00,
2013-12-07 10:00:00,37.6,30.7,30.32,WNW,300,2.0,11.0,76,0.00,,,0.00,Wunderground v.1.15,2013-12-07 15:00:00,
2013-12-07 10:01:00,37.8,30.9,30.32,North,355,2.0,11.0,76,0.00,,,0.00,Wunderground v.1.15,2013-12-07 15:01:00,
2013-12-07 10:02:00,37.8,30.9,30.32,NW,312,9.0,10.0,76,0.00,,,0.00,Wunderground v.1.15,2013-12-07 15:02:00,
2013-12-07 10:05:00,37.9,31.0,30.32,WNW,287,6.0,10.0,76,0.00,,,0.00,Wunderground v.1.15,2013-12-07 15:05:00,
2013-12-07 10:07:00,37.8,30.6,30.32,WNW,295,4.0,10.0,75,0.00,,,0.00,Wunderground v.1.15,2013-12-07 15:07:00,
2013-12-07 10:08:00,37.8,30.6,30.32,NNW,335,10.0,10.0,75,0.00,,,0.00,Wunderground v.1.15,2013-12-07 15:08:00,
2013-12-07 10:11:00,37.8,30.6,30.32,WNW,295,9.0,10.0,75,0.00,,,0.00,Wunderground v.1.15,2013-12-07 15:11:00,
2013-12-07 10:12:00,37.8,30.6,30.32,NW,309,3.0,6.0,75,0.00,,,0.00,Wunderground v.1.15,2013-12-07 15:12:00,
2013-12-07 10:13:00,37.8,30.6,30.32,WNW,285,3.0,6.0,75,0.00,,,0.00,Wunderground v.1.15,2013-12-07 15:13:00,
2013-12-07 10:17:00,37.8,30.6,30.32,NNW,343,4.0,11.0,75,0.00,,,0.00,Wunderground v.1.15,2013-12-07 15:17:00,
2013-12-07 10:18:00,37.8,30.6,30.32,NW,304,2.0,12.0,75,0.00,,,0.00,Wunderground v.1.15,2013-12-07 15:18:00,
2013-12-07 10:19:00,37.8,30.6,30.32,WNW,302,10.0,12.0,75,0.00,,,0.00,Wunderground v.1.15,2013-12-07 15:19:00,
2013-12-07 10:22:00,37.8,30.3,30.32,NW,319,3.0,6.0,74,0.00,,,0.00,Wunderground v.1.15,2013-12-07 15:22:00,
2013-12-07 10:23:00,37.8,30.3,30.32,North,350,7.0,9.0,74,0.00,,,0.00,Wunderground v.1.15,2013-12-07 15:23:00,
2013-12-07 10:24:00,37.8,30.3,30.32,North,355,7.0,9.0,74,0.00,,,0.00,Wunderground v.1.15,2013-12-07 15:24:00,
2013-12-07 10:27:00,37.8,30.6,30.32,WNW,289,6.0,9.0,75,0.00,,,0.00,Wunderground v.1.15,2013-12-07 15:27:00,
2013-12-07 10:29:00,37.8,30.3,30.32,NNE,18,5.0,10.0,74,0.00,,,0.00,Wunderground v.1.15,2013-12-07 15:29:00,
2013-12-07 10:30:00,37.8,30.3,30.32,NNW,331,6.0,10.0,74,0.00,,,0.00,Wunderground v.1.15,2013-12-07 15:30:00,
2013-12-07 10:32:00,37.9,30.4,30.32,NW,316,3.0,5.0,74,0.00,,,0.00,Wunderground v.1.15,2013-12-07 15:32:00,
2013-12-07 10:34:00,37.9,30.4,30.32,WNW,301,4.0,6.0,74,0.00,,,0.00,Wunderground v.1.15,2013-12-07 15:34:00,
2013-12-07 10:35:00,37.9,30.4,30.32,NNW,329,6.0,8.0,74,0.00,,,0.00,Wunderground v.1.15,2013-12-07 15:35:00,
2013-12-07 10:36:00,37.9,30.4,30.32,WNW,296,1.0,10.0,74,0.00,,,0.00,Wunderground v.1.15,2013-12-07 15:36:00,
2013-12-07 10:37:00,37.9,30.4,30.32,NW,312,2.0,10.0,74,0.00,,,0.00,Wunderground v.1.15,2013-12-07 15:37:00,
2013-12-07 10:40:00,38.0,30.4,30.32,North,355,7.0,10.0,74,0.00,,,0.00,Wunderground v.1.15,2013-12-07 15:40:00,
2013-12-07 10:42:00,38.0,30.1,30.32,NW,308,3.0,6.0,73,0.00,,,0.00,Wunderground v.1.15,2013-12-07 15:42:00,
2013-12-07 10:45:00,37.9,29.7,30.32,West,280,9.0,12.0,72,0.00,,,0.00,Wunderground v.1.15,2013-12-07 15:45:00,
2013-12-07 10:47:00,37.9,29.7,30.32,NW,308,10.0,14.0,72,0.00,,,0.00,Wunderground v.1.15,2013-12-07 15:47:00,
2013-12-07 10:48:00,37.9,29.7,30.32,NNW,331,5.0,14.0,72,0.00,,,0.00,Wunderground v.1.15,2013-12-07 15:48:00,
2013-12-07 10:50:00,37.9,29.7,30.32,NNW,335,6.0,14.0,72,0.00,,,0.00,Wunderground v.1.15,2013-12-07 15:50:00,
2013-12-07 10:51:00,37.9,29.7,30.32,NNW,336,11.0,14.0,72,0.00,,,0.00,Wunderground v.1.15,2013-12-07 15:51:00,
2013-12-07 10:52:00,37.9,29.3,30.32,NNW,338,10.0,11.0,71,0.00,,,0.00,Wunderground v.1.15,2013-12-07 15:52:00,
2013-12-07 10:53:00,37.9,29.3,30.32,NNW,329,5.0,11.0,71,0.00,,,0.00,Wunderground v.1.15,2013-12-07 15:53:00,
2013-12-07 10:56:00,38.0,29.8,30.32,WNW,302,4.0,11.0,72,0.00,,,0.00,Wunderground v.1.15,2013-12-07 15:56:00,
2013-12-07 10:57:00,38.2,30.0,30.32,NNW,336,2.0,11.0,72,0.00,,,0.00,Wunderground v.1.15,2013-12-07 15:57:00,
2013-12-07 10:58:00,38.2,30.0,30.32,NW,326,2.0,11.0,72,0.00,,,0.00,Wunderground v.1.15,2013-12-07 15:58:00,
2013-12-07 11:01:00,38.2,29.6,30.32,NNW,338,5.0,15.0,71,0.00,,,0.00,Wunderground v.1.15,2013-12-07 16:01:00,
2013-12-07 11:02:00,38.2,29.6,30.32,North,5,9.0,9.0,71,0.00,,,0.00,Wunderground v.1.15,2013-12-07 16:02:00,
2013-12-07 11:03:00,38.2,29.6,30.32,NW,304,10.0,12.0,71,0.00,,,0.00,Wunderground v.1.15,2013-12-07 16:03:00,
2013-12-07 11:06:00,38.3,29.7,30.32,NW,321,2.0,12.0,71,0.00,,,0.00,Wunderground v.1.15,2013-12-07 16:06:00,
2013-12-07 11:07:00,38.3,29.7,30.32,NW,322,3.0,12.0,71,0.00,,,0.00,Wunderground v.1.15,2013-12-07 16:07:00,
2013-12-07 11:08:00,38.3,29.7,30.32,NNW,338,6.0,12.0,71,0.00,,,0.00,Wunderground v.1.15,2013-12-07 16:08:00,
2013-12-07 11:09:00,38.3,29.7,30.32,North,355,1.0,12.0,71,0.00,,,0.00,Wunderground v.1.15,2013-12-07 16:09:00,
2013-12-07 11:12:00,38.6,30.0,30.32,NNW,342,4.0,5.0,71,0.00,,,0.00,Wunderground v.1.15,2013-12-07 16:12:00,
2013-12-07 11:13:00,38.6,30.0,30.32,WNW,290,6.0,6.0,71,0.00,,,0.00,Wunderground v.1.15,2013-12-07 16:13:00,
2013-12-07 11:14:00,38.6,29.7,30.32,NNW,348,7.0,9.0,70,0.00,,,0.00,Wunderground v.1.15,2013-12-07 16:14:00,
2013-12-07 11:18:00,38.8,29.8,30.32,NNE,27,6.0,9.0,70,0.00,,,0.00,Wunderground v.1.15,2013-12-07 16:18:00,
2013-12-07 11:19:00,38.9,29.9,30.32,NW,326,3.0,9.0,70,0.00,,,0.00,Wunderground v.1.15,2013-12-07 16:19:00,
2013-12-07 11:23:00,39.5,30.2,30.32,NW,315,3.0,5.0,69,0.00,,,0.00,Wunderground v.1.15,2013-12-07 16:23:00,
2013-12-07 11:24:00,39.5,30.2,30.32,WNW,303,5.0,7.0,69,0.00,,,0.00,Wunderground v.1.15,2013-12-07 16:24:00,
2013-12-07 11:25:00,39.6,30.3,30.32,North,355,6.0,10.0,69,0.00,,,0.00,Wunderground v.1.15,2013-12-07 16:25:00,
2013-12-07 11:28:00,39.8,30.1,30.32,West,273,6.0,10.0,68,0.00,,,0.00,Wunderground v.1.15,2013-12-07 16:28:00,
2013-12-07 11:29:00,39.8,30.1,30.32,NW,306,7.0,10.0,68,0.00,,,0.00,Wunderground v.1.15,2013-12-07 16:29:00,
2013-12-07 11:30:00,39.9,29.5,30.32,NW,321,1.0,10.0,66,0.00,,,0.00,Wunderground v.1.15,2013-12-07 16:30:00,
2013-12-07 11:33:00,40.2,29.7,30.32,WNW,286,9.0,11.0,66,0.00,,,0.00,Wunderground v.1.15,2013-12-07 16:33:00,
2013-12-07 11:34:00,40.2,29.7,30.32,NW,315,6.0,11.0,66,0.00,,,0.00,Wunderground v.1.15,2013-12-07 16:34:00,
2013-12-07 11:35:00,40.2,29.0,30.32,North,5,3.0,12.0,64,0.00,,,0.00,Wunderground v.1.15,2013-12-07 16:35:00,
2013-12-07 11:39:00,40.3,29.1,30.32,NW,318,3.0,12.0,64,0.00,,,0.00,Wunderground v.1.15,2013-12-07 16:39:00,
2013-12-07 11:40:00,40.3,28.7,30.32,NNW,340,10.0,12.0,63,0.00,,,0.00,Wunderground v.1.15,2013-12-07 16:40:00,
2013-12-07 11:41:00,40.3,28.7,30.32,West,273,7.0,12.0,63,0.00,,,0.00,Wunderground v.1.15,2013-12-07 16:41:00,
2013-12-07 11:44:00,40.1,28.9,30.32,West,271,8.0,11.0,64,0.00,,,0.00,Wunderground v.1.15,2013-12-07 16:44:00,
2013-12-07 11:45:00,40.1,28.5,30.32,WNW,289,6.0,11.0,63,0.00,,,0.00,Wunderground v.1.15,2013-12-07 16:45:00,
2013-12-07 11:46:00,40.1,28.5,30.32,West,275,6.0,11.0,63,0.00,,,0.00,Wunderground v.1.15,2013-12-07 16:46:00,
2013-12-07 11:49:00,40.1,28.9,30.32,NW,306,5.0,12.0,64,0.00,,,0.00,Wunderground v.1.15,2013-12-07 16:49:00,
2013-12-07 11:51:00,40.1,28.1,30.32,WNW,291,7.0,15.0,62,0.00,,,0.00,Wunderground v.1.15,2013-12-07 16:51:00,
2013-12-07 11:52:00,40.1,28.1,30.32,WNW,294,5.0,8.0,62,0.00,,,0.00,Wunderground v.1.15,2013-12-07 16:52:00,
2013-12-07 11:54:00,40.1,28.1,30.32,WNW,294,6.0,14.0,62,0.00,,,0.00,Wunderground v.1.15,2013-12-07 16:54:00,
2013-12-07 11:56:00,40.1,28.1,30.32,WNW,295,6.0,14.0,62,0.00,,,0.00,Wunderground v.1.15,2013-12-07 16:56:00,
2013-12-07 11:57:00,40.1,28.1,30.32,WNW,292,6.0,14.0,62,0.00,,,0.00,Wunderground v.1.15,2013-12-07 16:57:00,
2013-12-07 11:59:00,40.2,28.2,30.32,NW,305,5.0,14.0,62,0.00,,,0.00,Wunderground v.1.15,2013-12-07 16:59:00,
2013-12-07 12:00:00,40.2,28.2,30.32,NW,304,8.0,14.0,62,0.00,,,0.00,Wunderground v.1.15,2013-12-07 17:00:00,
2013-12-07 12:01:00,40.2,28.2,30.32,WNW,297,11.0,14.0,62,0.00,,,0.00,Wunderground v.1.15,2013-12-07 17:01:00,
2013-12-07 12:02:00,40.2,28.2,30.32,WNW,289,9.0,14.0,62,0.00,,,0.00,Wunderground v.1.15,2013-12-07 17:02:00,
2013-12-07 12:03:00,40.2,27.8,30.32,WNW,289,11.0,13.0,61,0.00,,,0.00,Wunderground v.1.15,2013-12-07 17:03:00,
2013-12-07 12:05:00,40.3,28.3,30.32,WNW,296,3.0,13.0,62,0.00,,,0.00,Wunderground v.1.15,2013-12-07 17:05:00,
2013-12-07 12:06:00,40.3,28.3,30.32,NW,320,2.0,13.0,62,0.00,,,0.00,Wunderground v.1.15,2013-12-07 17:06:00,
2013-12-07 12:07:00,40.3,27.9,30.32,NW,311,7.0,13.0,61,0.00,,,0.00,Wunderground v.1.15,2013-12-07 17:07:00,
2013-12-07 12:08:00,40.3,27.9,30.32,WNW,298,11.0,14.0,61,0.00,,,0.00,Wunderground v.1.15,2013-12-07 17:08:00,
2013-12-07 12:10:00,40.2,27.8,30.32,NW,316,12.0,15.0,61,0.00,,,0.00,Wunderground v.1.15,2013-12-07 17:10:00,
2013-12-07 12:11:00,40.2,27.8,30.32,WNW,288,10.0,15.0,61,0.00,,,0.00,Wunderground v.1.15,2013-12-07 17:11:00,
2013-12-07 12:12:00,40.2,27.8,30.32,North,9,11.0,12.0,61,0.00,,,0.00,Wunderground v.1.15,2013-12-07 17:12:00,
2013-12-07 12:13:00,40.2,27.8,30.32,North,350,12.0,12.0,61,0.00,,,0.00,Wunderground v.1.15,2013-12-07 17:13:00,
2013-12-07 12:16:00,40.3,27.1,30.32,NW,321,9.0,17.0,59,0.00,,,0.00,Wunderground v.1.15,2013-12-07 17:16:00,
2013-12-07 12:17:00,40.3,27.1,30.32,WNW,297,6.0,17.0,59,0.00,,,0.00,Wunderground v.1.15,2013-12-07 17:17:00,
2013-12-07 12:18:00,40.3,27.1,30.32,NW,319,5.0,17.0,59,0.00,,,0.00,Wunderground v.1.15,2013-12-07 17:18:00,
2013-12-07 12:19:00,40.3,27.1,30.31,WNW,300,5.0,17.0,59,0.00,,,0.00,Wunderground v.1.15,2013-12-07 17:19:00,
2013-12-07 12:21:00,40.3,27.5,30.31,NNW,345,3.0,17.0,60,0.00,,,0.00,Wunderground v.1.15,2013-12-07 17:21:00,
2013-12-07 12:22:00,40.5,27.7,30.31,North,360,3.0,7.0,60,0.00,,,0.00,Wunderground v.1.15,2013-12-07 17:22:00,
2013-12-07 12:23:00,40.5,27.7,30.31,North,5,7.0,9.0,60,0.00,,,0.00,Wunderground v.1.15,2013-12-07 17:23:00,
2013-12-07 12:24:00,40.5,27.7,30.31,West,277,2.0,9.0,60,0.00,,,0.00,Wunderground v.1.15,2013-12-07 17:24:00,
2013-12-07 12:25:00,40.6,27.8,30.32,NW,313,9.0,12.0,60,0.00,,,0.00,Wunderground v.1.15,2013-12-07 17:25:00,
2013-12-07 12:26:00,40.5,27.7,30.32,NW,308,16.0,16.0,60,0.00,,,0.00,Wunderground v.1.15,2013-12-07 17:26:00,
2013-12-07 12:27:00,40.5,27.7,30.32,NW,311,14.0,16.0,60,0.00,,,0.00,Wunderground v.1.15,2013-12-07 17:27:00,
2013-12-07 12:28:00,40.5,27.3,30.32,WNW,302,12.0,16.0,59,0.00,,,0.00,Wunderground v.1.15,2013-12-07 17:28:00,
2013-12-07 12:30:00,40.3,27.1,30.32,NW,307,3.0,16.0,59,0.00,,,0.00,Wunderground v.1.15,2013-12-07 17:30:00,
2013-12-07 12:31:00,40.3,27.5,30.32,NNW,340,2.0,16.0,60,0.00,,,0.00,Wunderground v.1.15,2013-12-07 17:31:00,
2013-12-07 12:32:00,40.3,27.5,30.32,NW,323,3.0,6.0,60,0.00,,,0.00,Wunderground v.1.15,2013-12-07 17:32:00,
2013-12-07 12:34:00,40.3,27.5,30.32,WNW,288,6.0,9.0,60,0.00,,,0.00,Wunderground v.1.15,2013-12-07 17:34:00,
2013-12-07 12:35:00,40.3,27.1,30.32,NW,315,10.0,12.0,59,0.00,,,0.00,Wunderground v.1.15,2013-12-07 17:35:00,
2013-12-07 12:36:00,40.2,27.0,30.32,NNW,342,6.0,12.0,59,0.00,,,0.00,Wunderground v.1.15,2013-12-07 17:36:00,
2013-12-07 12:37:00,40.2,27.4,30.32,WNW,294,6.0,12.0,60,0.00,,,0.00,Wunderground v.1.15,2013-12-07 17:37:00,
2013-12-07 12:39:00,40.2,27.4,30.32,NNW,341,2.0,12.0,60,0.00,,,0.00,Wunderground v.1.15,2013-12-07 17:39:00,
2013-12-07 12:40:00,40.2,27.4,30.32,NNE,29,5.0,12.0,60,0.00,,,0.00,Wunderground v.1.15,2013-12-07 17:40:00,
2013-12-07 12:41:00,40.3,27.5,30.32,NNE,25,1.0,12.0,60,0.00,,,0.00,Wunderground v.1.15,2013-12-07 17:41:00,
2013-12-07 12:42:00,40.3,27.9,30.32,North,350,4.0,6.0,61,0.00,,,0.00,Wunderground v.1.15,2013-12-07 17:42:00,
2013-12-07 12:44:00,40.3,27.1,30.32,NNW,340,6.0,11.0,59,0.00,,,0.00,Wunderground v.1.15,2013-12-07 17:44:00,
2013-12-07 12:46:00,40.3,27.5,30.32,NW,304,3.0,11.0,60,0.00,,,0.00,Wunderground v.1.15,2013-12-07 17:46:00,
2013-12-07 12:47:00,40.3,27.9,30.32,NW,317,6.0,11.0,61,0.00,,,0.00,Wunderground v.1.15,2013-12-07 17:47:00,
2013-12-07 12:49:00,40.3,27.9,30.32,WNW,296,10.0,11.0,61,0.00,,,0.00,Wunderground v.1.15,2013-12-07 17:49:00,
2013-12-07 12:52:00,40.3,27.5,30.32,NW,312,5.0,10.0,60,0.00,,,0.00,Wunderground v.1.15,2013-12-07 17:52:00,
2013-12-07 12:53:00,40.3,27.5,30.32,West,281,6.0,10.0,60,0.00,,,0.00,Wunderground v.1.15,2013-12-07 17:53:00,
2013-12-07 12:55:00,40.3,27.5,30.32,NNW,346,5.0,12.0,60,0.00,,,0.00,Wunderground v.1.15,2013-12-07 17:55:00,
2013-12-07 12:58:00,40.3,27.5,30.32,NW,316,7.0,12.0,60,0.00,,,0.00,Wunderground v.1.15,2013-12-07 17:58:00,
2013-12-07 12:59:00,40.3,27.5,30.32,WNW,303,5.0,12.0,60,0.00,,,0.00,Wunderground v.1.15,2013-12-07 17:59:00,
2013-12-07 13:01:00,40.5,28.1,30.32,WNW,294,2.0,12.0,61,0.00,,,0.00,Wunderground v.1.15,2013-12-07 18:01:00,
2013-12-07 13:03:00,40.5,28.1,30.31,NNW,336,9.0,9.0,61,0.00,,,0.00,Wunderground v.1.15,2013-12-07 18:03:00,
2013-12-07 13:05:00,40.5,27.3,30.32,NW,313,5.0,10.0,59,0.00,,,0.00,Wunderground v.1.15,2013-12-07 18:05:00,
2013-12-07 13:06:00,40.5,27.3,30.32,North,10,3.0,10.0,59,0.00,,,0.00,Wunderground v.1.15,2013-12-07 18:06:00,
2013-12-07 13:08:00,40.5,26.9,30.32,NW,321,7.0,10.0,58,0.00,,,0.00,Wunderground v.1.15,2013-12-07 18:08:00,
2013-12-07 13:10:00,40.5,26.0,30.32,NW,317,6.0,10.0,56,0.00,,,0.00,Wunderground v.1.15,2013-12-07 18:10:00,
2013-12-07 13:11:00,40.5,26.0,30.32,NW,306,3.0,10.0,56,0.00,,,0.00,Wunderground v.1.15,2013-12-07 18:11:00,
2013-12-07 13:14:00,40.5,26.0,30.32,WNW,298,2.0,8.0,56,0.00,,,0.00,Wunderground v.1.15,2013-12-07 18:14:00,
2013-12-07 13:15:00,40.5,26.4,30.32,NW,316,6.0,8.0,57,0.00,,,0.00,Wunderground v.1.15,2013-12-07 18:15:00,
2013-12-07 13:16:00,40.5,26.4,30.32,NNW,329,0.0,9.0,57,0.00,,,0.00,Wunderground v.1.15,2013-12-07 18:16:00,
2013-12-07 13:19:00,40.6,26.5,30.32,WNW,301,4.0,9.0,57,0.00,,,0.00,Wunderground v.1.15,2013-12-07 18:19:00,
2013-12-07 13:20:00,40.6,26.5,30.32,WNW,285,3.0,9.0,57,0.00,,,0.00,Wunderground v.1.15,2013-12-07 18:20:00,
2013-12-07 13:21:00,40.6,26.5,30.32,NNW,331,6.0,9.0,57,0.00,,,0.00,Wunderground v.1.15,2013-12-07 18:21:00,
2013-12-07 13:22:00,40.6,26.5,30.32,WNW,296,4.0,4.0,57,0.00,,,0.00,Wunderground v.1.15,2013-12-07 18:22:00,
2013-12-07 13:24:00,40.6,27.0,30.32,North,5,3.0,6.0,58,0.00,,,0.00,Wunderground v.1.15,2013-12-07 18:24:00,
2013-12-07 13:25:00,40.6,27.0,30.32,WNW,298,6.0,9.0,58,0.00,,,0.00,Wunderground v.1.15,2013-12-07 18:25:00,
2013-12-07 13:26:00,40.6,27.0,30.32,NW,305,11.0,11.0,58,0.00,,,0.00,Wunderground v.1.15,2013-12-07 18:26:00,
2013-12-07 13:27:00,40.6,27.0,30.32,NW,305,10.0,12.0,58,0.00,,,0.00,Wunderground v.1.15,2013-12-07 18:27:00,
2013-12-07 13:28:00,40.6,27.0,30.32,WNW,297,11.0,12.0,58,0.00,,,0.00,Wunderground v.1.15,2013-12-07 18:28:00,
2013-12-07 13:29:00,40.6,26.5,30.32,WNW,303,11.0,14.0,57,0.00,,,0.00,Wunderground v.1.15,2013-12-07 18:29:00,
2013-12-07 13:30:00,40.5,26.9,30.32,SW,219,4.0,14.0,58,0.00,,,0.00,Wunderground v.1.15,2013-12-07 18:30:00,
2013-12-07 13:31:00,40.5,26.9,30.32,West,265,10.0,14.0,58,0.00,,,0.00,Wunderground v.1.15,2013-12-07 18:31:00,
2013-12-07 13:33:00,40.5,26.9,30.32,WNW,300,3.0,14.0,58,0.00,,,0.00,Wunderground v.1.15,2013-12-07 18:33:00,
2013-12-07 13:34:00,40.5,26.9,30.32,NW,317,4.0,14.0,58,0.00,,,0.00,Wunderground v.1.15,2013-12-07 18:34:00,
2013-12-07 13:36:00,40.3,26.7,30.32,WNW,300,5.0,14.0,58,0.00,,,0.00,Wunderground v.1.15,2013-12-07 18:36:00,
2013-12-07 13:37:00,40.2,26.6,30.32,West,273,4.0,14.0,58,0.00,,,0.00,Wunderground v.1.15,2013-12-07 18:37:00,
2013-12-07 13:38:00,40.2,26.6,30.32,NW,306,12.0,14.0,58,0.00,,,0.00,Wunderground v.1.15,2013-12-07 18:38:00,
2013-12-07 13:39:00,40.2,26.6,30.32,WSW,242,10.0,14.0,58,0.00,,,0.00,Wunderground v.1.15,2013-12-07 18:39:00,
2013-12-07 13:40:00,40.1,26.5,30.32,WSW,255,9.0,14.0,58,0.00,,,0.00,Wunderground v.1.15,2013-12-07 18:40:00,
2013-12-07 13:41:00,40.1,26.5,30.32,West,281,7.0,14.0,58,0.00,,,0.00,Wunderground v.1.15,2013-12-07 18:41:00,
2013-12-07 13:42:00,39.9,25.9,30.32,West,269,4.0,11.0,57,0.00,,,0.00,Wunderground v.1.15,2013-12-07 18:42:00,
2013-12-07 13:43:00,39.9,26.3,30.32,West,259,6.0,11.0,58,0.00,,,0.00,Wunderground v.1.15,2013-12-07 18:43:00,
2013-12-07 13:44:00,39.9,26.3,30.32,NNE,22,4.0,12.0,58,0.00,,,0.00,Wunderground v.1.15,2013-12-07 18:44:00,
2013-12-07 13:45:00,39.9,26.3,30.32,NW,321,9.0,12.0,58,0.00,,,0.00,Wunderground v.1.15,2013-12-07 18:45:00,
2013-12-07 13:47:00,40.1,26.5,30.32,WNW,297,12.0,13.0,58,0.00,,,0.00,Wunderground v.1.15,2013-12-07 18:47:00,
2013-12-07 13:48:00,40.1,26.5,30.32,WNW,286,4.0,13.0,58,0.00,,,0.00,Wunderground v.1.15,2013-12-07 18:48:00,
2013-12-07 13:49:00,40.1,26.5,30.32,WNW,298,7.0,13.0,58,0.00,,,0.00,Wunderground v.1.15,2013-12-07 18:49:00,
2013-12-07 13:51:00,40.1,26.1,30.32,WNW,299,5.0,13.0,57,0.00,,,0.00,Wunderground v.1.15,2013-12-07 18:51:00,
2013-12-07 13:52:00,40.1,26.1,30.33,WNW,291,6.0,10.0,57,0.00,,,0.00,Wunderground v.1.15,2013-12-07 18:52:00,
2013-12-07 13:53:00,40.1,26.1,30.33,NW,304,10.0,11.0,57,0.00,,,0.00,Wunderground v.1.15,2013-12-07 18:53:00,
2013-12-07 13:54:00,40.1,26.1,30.33,WNW,286,11.0,12.0,57,0.00,,,0.00,Wunderground v.1.15,2013-12-07 18:54:00,
2013-12-07 13:56:00,40.1,25.6,30.32,North,351,5.0,12.0,56,0.00,,,0.00,Wunderground v.1.15,2013-12-07 18:56:00,
2013-12-07 13:57:00,40.1,25.6,30.33,WNW,300,2.0,12.0,56,0.00,,,0.00,Wunderground v.1.15,2013-12-07 18:57:00,
2013-12-07 13:58:00,40.1,25.6,30.33,West,278,7.0,14.0,56,0.00,,,0.00,Wunderground v.1.15,2013-12-07 18:58:00,
2013-12-07 13:59:00,40.1,25.2,30.33,WNW,294,11.0,14.0,55,0.00,,,0.00,Wunderground v.1.15,2013-12-07 18:59:00,
2013-12-07 14:01:00,40.1,25.2,30.33,NW,312,6.0,15.0,55,0.00,,,0.00,Wunderground v.1.15,2013-12-07 19:01:00,
2013-12-07 14:04:00,40.1,25.2,30.33,WNW,286,8.0,16.0,55,0.00,,,0.00,Wunderground v.1.15,2013-12-07 19:04:00,
2013-12-07 14:06:00,40.2,25.3,30.33,NW,319,10.0,16.0,55,0.00,,,0.00,Wunderground v.1.15,2013-12-07 19:06:00,
2013-12-07 14:07:00,40.2,25.3,30.33,West,271,11.0,16.0,55,0.00,,,0.00,Wunderground v.1.15,2013-12-07 19:07:00,
2013-12-07 14:09:00,40.2,25.3,30.33,WNW,295,4.0,16.0,55,0.00,,,0.00,Wunderground v.1.15,2013-12-07 19:09:00,
2013-12-07 14:11:00,40.2,25.3,30.33,WNW,293,6.0,16.0,55,0.00,,,0.00,Wunderground v.1.15,2013-12-07 19:11:00,
2013-12-07 14:12:00,40.2,25.3,30.33,WNW,287,9.0,9.0,55,0.00,,,0.00,Wunderground v.1.15,2013-12-07 19:12:00,
2013-12-07 14:14:00,40.3,25.4,30.33,WNW,301,7.0,13.0,55,0.00,,,0.00,Wunderground v.1.15,2013-12-07 19:14:00,
2013-12-07 14:15:00,40.3,25.4,30.33,NW,316,3.0,13.0,55,0.00,,,0.00,Wunderground v.1.15,2013-12-07 19:15:00,
2013-12-07 14:16:00,40.3,25.8,30.33,WNW,298,10.0,13.0,56,0.00,,,0.00,Wunderground v.1.15,2013-12-07 19:16:00,
2013-12-07 14:17:00,40.5,25.6,30.33,NNE,15,5.0,13.0,55,0.00,,,0.00,Wunderground v.1.15,2013-12-07 19:17:00,
2013-12-07 14:19:00,40.5,25.6,30.33,NNW,333,4.0,13.0,55,0.00,,,0.00,Wunderground v.1.15,2013-12-07 19:19:00,
2013-12-07 14:20:00,40.5,25.1,30.33,NNW,336,4.0,13.0,54,0.00,,,0.00,Wunderground v.1.15,2013-12-07 19:20:00,
2013-12-07 14:21:00,40.6,25.7,30.33,NW,314,2.0,13.0,55,0.00,,,0.00,Wunderground v.1.15,2013-12-07 19:21:00,
2013-12-07 14:22:00,40.6,26.1,30.33,NW,318,6.0,9.0,56,0.00,,,0.00,Wunderground v.1.15,2013-12-07 19:22:00,
2013-12-07 14:24:00,40.6,25.7,30.33,NNW,337,3.0,11.0,55,0.00,,,0.00,Wunderground v.1.15,2013-12-07 19:24:00,
2013-12-07 14:25:00,40.6,25.2,30.33,NW,317,2.0,11.0,54,0.00,,,0.00,Wunderground v.1.15,2013-12-07 19:25:00,
2013-12-07 14:26:00,40.6,25.7,30.33,WNW,289,7.0,11.0,55,0.00,,,0.00,Wunderground v.1.15,2013-12-07 19:26:00,
2013-12-07 14:27:00,40.6,25.7,30.33,WNW,284,5.0,11.0,55,0.00,,,0.00,Wunderground v.1.15,2013-12-07 19:27:00,
2013-12-07 14:28:00,40.8,25.9,30.33,WNW,285,4.0,11.0,55,0.00,,,0.00,Wunderground v.1.15,2013-12-07 19:28:00,
2013-12-07 14:30:00,40.6,25.2,30.33,WNW,282,4.0,12.0,54,0.00,,,0.00,Wunderground v.1.15,2013-12-07 19:30:00,
2013-12-07 14:31:00,40.6,25.2,30.33,West,281,4.0,13.0,54,0.00,,,0.00,Wunderground v.1.15,2013-12-07 19:31:00,
2013-12-07 14:33:00,40.3,25.0,30.33,SW,227,4.0,15.0,54,0.00,,,0.00,Wunderground v.1.15,2013-12-07 19:33:00,
2013-12-07 14:36:00,40.1,25.2,30.33,SW,232,4.0,15.0,55,0.00,,,0.00,Wunderground v.1.15,2013-12-07 19:36:00,
2013-12-07 14:38:00,39.8,24.9,30.33,WNW,282,10.0,15.0,55,0.00,,,0.00,Wunderground v.1.15,2013-12-07 19:38:00,
2013-12-07 14:41:00,39.6,24.7,30.34,WNW,286,10.0,15.0,55,0.00,,,0.00,Wunderground v.1.15,2013-12-07 19:41:00,
2013-12-07 14:42:00,39.6,24.7,30.34,West,281,7.0,8.0,55,0.00,,,0.00,Wunderground v.1.15,2013-12-07 19:42:00,
2013-12-07 14:43:00,39.5,24.7,30.34,WNW,286,4.0,15.0,55,0.00,,,0.00,Wunderground v.1.15,2013-12-07 19:43:00,
2013-12-07 14:44:00,39.5,24.7,30.34,WNW,288,4.0,15.0,55,0.00,,,0.00,Wunderground v.1.15,2013-12-07 19:44:00,
2013-12-07 14:47:00,39.3,24.9,30.34,NNW,342,10.0,15.0,56,0.00,,,0.00,Wunderground v.1.15,2013-12-07 19:47:00,
2013-12-07 14:48:00,39.3,24.5,30.34,West,281,7.0,15.0,55,0.00,,,0.00,Wunderground v.1.15,2013-12-07 19:48:00,
2013-12-07 14:49:00,39.3,24.5,30.34,West,265,8.0,15.0,55,0.00,,,0.00,Wunderground v.1.15,2013-12-07 19:49:00,
2013-12-07 14:52:00,39.2,24.8,30.34,NNW,340,10.0,12.0,56,0.00,,,0.00,Wunderground v.1.15,2013-12-07 19:52:00,
2013-12-07 14:53:00,39.2,24.8,30.34,WNW,288,11.0,14.0,56,0.00,,,0.00,Wunderground v.1.15,2013-12-07 19:53:00,
2013-12-07 14:54:00,39.2,24.8,30.34,NW,320,9.0,15.0,56,0.00,,,0.00,Wunderground v.1.15,2013-12-07 19:54:00,
2013-12-07 14:56:00,39.2,25.2,30.34,WNW,302,9.0,15.0,57,0.00,,,0.00,Wunderground v.1.15,2013-12-07 19:56:00,
2013-12-07 14:57:00,39.1,24.7,30.34,WNW,302,10.0,15.0,56,0.00,,,0.00,Wunderground v.1.15,2013-12-07 19:57:00,
2013-12-07 14:58:00,39.1,24.7,30.34,West,273,9.0,15.0,56,0.00,,,0.00,Wunderground v.1.15,2013-12-07 19:58:00,
2013-12-07 14:59:00,39.1,24.7,30.34,West,278,8.0,15.0,56,0.00,,,0.00,Wunderground v.1.15,2013-12-07 19:59:00,
2013-12-07 15:00:00,39.1,24.7,30.34,NW,304,6.0,15.0,56,0.00,,,0.00,Wunderground v.1.15,2013-12-07 20:00:00,
2013-12-07 15:03:00,38.9,24.9,30.34,West,279,6.0,11.0,57,0.00,,,0.00,Wunderground v.1.15,2013-12-07 20:03:00,
2013-12-07 15:04:00,38.8,24.4,30.34,WNW,298,10.0,11.0,56,0.00,,,0.00,Wunderground v.1.15,2013-12-07 20:04:00,
2013-12-07 15:05:00,38.8,24.4,30.34,NW,307,10.0,11.0,56,0.00,,,0.00,Wunderground v.1.15,2013-12-07 20:05:00,
2013-12-07 15:08:00,38.6,24.7,30.35,NW,307,12.0,12.0,57,0.00,,,0.00,Wunderground v.1.15,2013-12-07 20:08:00,
2013-12-07 15:09:00,38.5,24.1,30.35,West,264,4.0,14.0,56,0.00,,,0.00,Wunderground v.1.15,2013-12-07 20:09:00,
2013-12-07 15:10:00,38.5,24.6,30.35,WNW,294,4.0,14.0,57,0.00,,,0.00,Wunderground v.1.15,2013-12-07 20:10:00,
2013-12-07 15:13:00,38.5,24.6,30.35,WSW,241,5.0,9.0,57,0.00,,,0.00,Wunderground v.1.15,2013-12-07 20:13:00,
2013-12-07 15:14:00,38.3,24.4,30.35,WSW,255,3.0,9.0,57,0.00,,,0.00,Wunderground v.1.15,2013-12-07 20:14:00,
2013-12-07 15:15:00,38.3,24.4,30.35,West,269,5.0,9.0,57,0.00,,,0.00,Wunderground v.1.15,2013-12-07 20:15:00,
2013-12-07 15:16:00,38.3,24.4,30.35,WNW,296,6.0,9.0,57,0.00,,,0.00,Wunderground v.1.15,2013-12-07 20:16:00,
2013-12-07 15:18:00,38.3,24.4,30.35,West,264,5.0,13.0,57,0.00,,,0.00,Wunderground v.1.15,2013-12-07 20:18:00,
2013-12-07 15:19:00,38.2,24.3,30.35,WNW,298,4.0,13.0,57,0.00,,,0.00,Wunderground v.1.15,2013-12-07 20:19:00,
2013-12-07 15:21:00,38.2,24.3,30.36,NW,311,7.0,13.0,57,0.00,,,0.00,Wunderground v.1.15,2013-12-07 20:21:00,
2013-12-07 15:24:00,38.2,24.7,30.36,NW,311,1.0,5.0,58,0.00,,,0.00,Wunderground v.1.15,2013-12-07 20:24:00,
2013-12-07 15:25:00,38.2,24.7,30.36,NW,311,2.0,5.0,58,0.00,,,0.00,Wunderground v.1.15,2013-12-07 20:25:00,
2013-12-07 15:26:00,38.2,24.7,30.36,WNW,286,5.0,8.0,58,0.00,,,0.00,Wunderground v.1.15,2013-12-07 20:26:00,
2013-12-07 15:27:00,38.2,24.7,30.36,WNW,297,4.0,11.0,58,0.00,,,0.00,Wunderground v.1.15,2013-12-07 20:27:00,
2013-12-07 15:30:00,38.0,24.5,30.36,WNW,301,4.0,11.0,58,0.00,,,0.00,Wunderground v.1.15,2013-12-07 20:30:00,
2013-12-07 15:31:00,38.0,24.5,30.36,WNW,298,4.0,11.0,58,0.00,,,0.00,Wunderground v.1.15,2013-12-07 20:31:00,
2013-12-07 15:33:00,38.0,24.5,30.36,West,259,4.0,6.0,58,0.00,,,0.00,Wunderground v.1.15,2013-12-07 20:33:00,
2013-12-07 15:35:00,38.0,24.5,30.36,WNW,301,3.0,6.0,58,0.00,,,0.00,Wunderground v.1.15,2013-12-07 20:35:00,
2013-12-07 15:36:00,38.0,24.5,30.36,NW,309,4.0,6.0,58,0.00,,,0.00,Wunderground v.1.15,2013-12-07 20:36:00,
2013-12-07 15:38:00,38.0,24.5,30.36,WNW,296,4.0,6.0,58,0.00,,,0.00,Wunderground v.1.15,2013-12-07 20:38:00,
2013-12-07 15:40:00,37.9,24.4,30.36,WNW,298,4.0,6.0,58,0.00,,,0.00,Wunderground v.1.15,2013-12-07 20:40:00,
2013-12-07 15:41:00,37.9,24.4,30.36,NW,308,4.0,6.0,58,0.00,,,0.00,Wunderground v.1.15,2013-12-07 20:41:00,
2013-12-07 15:42:00,37.9,24.4,30.36,NW,304,2.0,4.0,58,0.00,,,0.00,Wunderground v.1.15,2013-12-07 20:42:00,
2013-12-07 15:43:00,37.9,24.4,30.36,WNW,286,3.0,5.0,58,0.00,,,0.00,Wunderground v.1.15,2013-12-07 20:43:00,
2013-12-07 15:45:00,37.9,24.4,30.36,West,266,3.0,5.0,58,0.00,,,0.00,Wunderground v.1.15,2013-12-07 20:45:00,
2013-12-07 15:47:00,37.9,24.8,30.36,West,260,3.0,5.0,59,0.00,,,0.00,Wunderground v.1.15,2013-12-07 20:47:00,
2013-12-07 15:48:00,37.9,24.4,30.36,West,277,3.0,5.0,58,0.00,,,0.00,Wunderground v.1.15,2013-12-07 20:48:00,
2013-12-07 15:49:00,37.9,24.4,30.36,WNW,295,4.0,5.0,58,0.00,,,0.00,Wunderground v.1.15,2013-12-07 20:49:00,
2013-12-07 15:51:00,37.8,24.7,30.36,NW,309,9.0,9.0,59,0.00,,,0.00,Wunderground v.1.15,2013-12-07 20:51:00,
2013-12-07 15:52:00,37.8,24.3,30.36,West,281,4.0,10.0,58,0.00,,,0.00,Wunderground v.1.15,2013-12-07 20:52:00,
2013-12-07 15:53:00,37.8,24.3,30.36,West,281,4.0,10.0,58,0.00,,,0.00,Wunderground v.1.15,2013-12-07 20:53:00,
2013-12-07 15:55:00,37.8,24.3,30.36,WNW,293,7.0,10.0,58,0.00,,,0.00,Wunderground v.1.15,2013-12-07 20:55:00,
2013-12-07 15:56:00,37.8,24.3,30.36,WNW,301,3.0,10.0,58,0.00,,,0.00,Wunderground v.1.15,2013-12-07 20:56:00,
2013-12-07 15:58:00,37.8,24.3,30.36,WNW,296,2.0,10.0,58,0.00,,,0.00,Wunderground v.1.15,2013-12-07 20:58:00,
2013-12-07 15:59:00,37.8,24.7,30.37,WNW,296,3.0,10.0,59,0.00,,,0.00,Wunderground v.1.15,2013-12-07 20:59:00,
2013-12-07 16:00:00,37.6,24.6,30.36,WNW,296,4.0,10.0,59,0.00,,,0.00,Wunderground v.1.15,2013-12-07 21:00:00,
2013-12-07 16:02:00,37.6,24.6,30.36,NW,307,1.0,4.0,59,0.00,,,0.00,Wunderground v.1.15,2013-12-07 21:02:00,
2013-12-07 16:03:00,37.6,24.6,30.37,NW,307,4.0,4.0,59,0.00,,,0.00,Wunderground v.1.15,2013-12-07 21:03:00,
2013-12-07 16:04:00,37.6,24.6,30.37,NW,304,6.0,6.0,59,0.00,,,0.00,Wunderground v.1.15,2013-12-07 21:04:00,
2013-12-07 16:05:00,37.5,24.5,30.37,WSW,242,4.0,6.0,59,0.00,,,0.00,Wunderground v.1.15,2013-12-07 21:05:00,
2013-12-07 16:07:00,37.5,24.5,30.37,WSW,256,2.0,6.0,59,0.00,,,0.00,Wunderground v.1.15,2013-12-07 21:07:00,
2013-12-07 16:08:00,37.5,24.5,30.37,WSW,256,0.0,6.0,59,0.00,,,0.00,Wunderground v.1.15,2013-12-07 21:08:00,
2013-12-07 16:09:00,37.5,24.5,30.37,WSW,256,2.0,6.0,59,0.00,,,0.00,Wunderground v.1.15,2013-12-07 21:09:00,
2013-12-07 16:10:00,37.5,24.5,30.37,WSW,256,2.0,6.0,59,0.00,,,0.00,Wunderground v.1.15,2013-12-07 21:10:00,
2013-12-07 16:11:00,37.3,24.3,30.37,West,271,6.0,12.0,59,0.00,,,0.00,Wunderground v.1.15,2013-12-07 21:11:00,
2013-12-07 16:12:00,37.3,24.3,30.38,WNW,300,5.0,10.0,59,0.00,,,0.00,Wunderground v.1.15,2013-12-07 21:12:00,
2013-12-07 16:14:00,37.3,24.3,30.37,WNW,302,5.0,10.0,59,0.00,,,0.00,Wunderground v.1.15,2013-12-07 21:14:00,
2013-12-07 16:15:00,37.3,24.3,30.38,WNW,294,3.0,10.0,59,0.00,,,0.00,Wunderground v.1.15,2013-12-07 21:15:00,
2013-12-07 16:16:00,37.3,24.3,30.38,NW,313,4.0,10.0,59,0.00,,,0.00,Wunderground v.1.15,2013-12-07 21:16:00,
2013-12-07 16:17:00,37.3,24.3,30.38,NW,304,4.0,10.0,59,0.00,,,0.00,Wunderground v.1.15,2013-12-07 21:17:00,
2013-12-07 16:19:00,37.3,24.3,30.38,WNW,301,0.0,10.0,59,0.00,,,0.00,Wunderground v.1.15,2013-12-07 21:19:00,
2013-12-07 16:20:00,37.3,24.3,30.38,West,277,6.0,10.0,59,0.00,,,0.00,Wunderground v.1.15,2013-12-07 21:20:00,
2013-12-07 16:21:00,37.2,24.2,30.38,WNW,296,2.0,10.0,59,0.00,,,0.00,Wunderground v.1.15,2013-12-07 21:21:00,
2013-12-07 16:22:00,37.2,24.2,30.38,WNW,294,5.0,6.0,59,0.00,,,0.00,Wunderground v.1.15,2013-12-07 21:22:00,
2013-12-07 16:23:00,37.2,24.2,30.38,WNW,294,3.0,6.0,59,0.00,,,0.00,Wunderground v.1.15,2013-12-07 21:23:00,
2013-12-07 16:24:00,37.2,24.2,30.38,WNW,294,3.0,6.0,59,0.00,,,0.00,Wunderground v.1.15,2013-12-07 21:24:00,
2013-12-07 16:25:00,37.2,24.2,30.38,NW,313,4.0,7.0,59,0.00,,,0.00,Wunderground v.1.15,2013-12-07 21:25:00,
2013-12-07 16:27:00,37.0,24.0,30.38,WNW,302,3.0,7.0,59,0.00,,,0.00,Wunderground v.1.15,2013-12-07 21:27:00,
2013-12-07 16:28:00,37.0,24.0,30.38,WNW,302,4.0,7.0,59,0.00,,,0.00,Wunderground v.1.15,2013-12-07 21:28:00,
2013-12-07 16:29:00,37.0,24.0,30.38,NW,308,2.0,7.0,59,0.00,,,0.00,Wunderground v.1.15,2013-12-07 21:29:00,
2013-12-07 16:30:00,37.0,24.0,30.38,West,275,3.0,7.0,59,0.00,,,0.00,Wunderground v.1.15,2013-12-07 21:30:00,
2013-12-07 16:31:00,37.0,24.0,30.38,West,275,2.0,7.0,59,0.00,,,0.00,Wunderground v.1.15,2013-12-07 21:31:00,
2013-12-07 16:33:00,37.0,24.0,30.38,WNW,286,0.0,4.0,59,0.00,,,0.00,Wunderground v.1.15,2013-12-07 21:33:00,
2013-12-07 16:34:00,36.9,23.9,30.38,WNW,292,5.0,5.0,59,0.00,,,0.00,Wunderground v.1.15,2013-12-07 21:34:00,
2013-12-07 16:36:00,36.9,23.9,30.38,WNW,292,1.0,5.0,59,0.00,,,0.00,Wunderground v.1.15,2013-12-07 21:36:00,
2013-12-07 16:38:00,36.9,23.9,30.38,NNW,336,0.0,5.0,59,0.00,,,0.00,Wunderground v.1.15,2013-12-07 21:38:00,
2013-12-07 16:39:00,36.9,23.9,30.38,NNW,336,1.0,5.0,59,0.00,,,0.00,Wunderground v.1.15,2013-12-07 21:39:00,
2013-12-07 16:42:00,36.8,24.2,30.39,NNW,336,0.0,2.0,60,0.00,,,0.00,Wunderground v.1.15,2013-12-07 21:42:00,
2013-12-07 16:43:00,36.8,24.2,30.39,NNW,336,1.0,3.0,60,0.00,,,0.00,Wunderground v.1.15,2013-12-07 21:43:00,
2013-12-07 16:44:00,36.6,24.4,30.39,NNW,336,0.0,3.0,61,0.00,,,0.00,Wunderground v.1.15,2013-12-07 21:44:00,
2013-12-07 16:45:00,36.6,24.4,30.39,NNW,336,0.0,3.0,61,0.00,,,0.00,Wunderground v.1.15,2013-12-07 21:45:00,
2013-12-07 16:47:00,36.5,24.3,30.39,NNW,336,0.0,3.0,61,0.00,,,0.00,Wunderground v.1.15,2013-12-07 21:47:00,
2013-12-07 16:48:00,36.5,24.7,30.39,NNW,336,0.0,3.0,62,0.00,,,0.00,Wunderground v.1.15,2013-12-07 21:48:00,
2013-12-07 16:49:00,36.3,24.5,30.39,NNW,336,2.0,3.0,62,0.00,,,0.00,Wunderground v.1.15,2013-12-07 21:49:00,
2013-12-07 16:50:00,36.3,24.5,30.39,NW,308,4.0,5.0,62,0.00,,,0.00,Wunderground v.1.15,2013-12-07 21:50:00,
2013-12-07 16:52:00,36.2,24.8,30.39,NW,306,3.0,4.0,63,0.00,,,0.00,Wunderground v.1.15,2013-12-07 21:52:00,
2013-12-07 16:53:00,36.2,24.8,30.39,NW,306,3.0,4.0,63,0.00,,,0.00,Wunderground v.1.15,2013-12-07 21:53:00,
2013-12-07 16:54:00,36.2,24.4,30.39,NW,306,3.0,5.0,62,0.00,,,0.00,Wunderground v.1.15,2013-12-07 21:54:00,
2013-12-07 16:55:00,36.2,24.4,30.39,NW,306,3.0,5.0,62,0.00,,,0.00,Wunderground v.1.15,2013-12-07 21:55:00,
2013-12-07 16:57:00,36.0,24.6,30.39,NNW,332,4.0,6.0,63,0.00,,,0.00,Wunderground v.1.15,2013-12-07 21:57:00,
2013-12-07 16:58:00,36.0,24.6,30.39,NW,317,3.0,6.0,63,0.00,,,0.00,Wunderground v.1.15,2013-12-07 21:58:00,
2013-12-07 17:00:00,36.0,24.2,30.39,WNW,301,4.0,6.0,62,0.00,,,0.00,Wunderground v.1.15,2013-12-07 22:00:00,
2013-12-07 17:02:00,36.0,24.2,30.39,NNW,342,7.0,7.0,62,0.00,,,0.00,Wunderground v.1.15,2013-12-07 22:02:00,
2013-12-07 17:03:00,36.0,24.2,30.39,NW,305,4.0,7.0,62,0.00,,,0.00,Wunderground v.1.15,2013-12-07 22:03:00,
2013-12-07 17:05:00,36.0,24.2,30.39,WNW,284,5.0,7.0,62,0.00,,,0.00,Wunderground v.1.15,2013-12-07 22:05:00,
2013-12-07 17:06:00,36.0,24.2,30.39,West,281,2.0,7.0,62,0.00,,,0.00,Wunderground v.1.15,2013-12-07 22:06:00,
2013-12-07 17:07:00,36.0,24.2,30.39,NW,311,3.0,7.0,62,0.00,,,0.00,Wunderground v.1.15,2013-12-07 22:07:00,
2013-12-07 17:09:00,36.0,24.2,30.39,NW,306,3.0,7.0,62,0.00,,,0.00,Wunderground v.1.15,2013-12-07 22:09:00,
2013-12-07 17:10:00,36.0,24.2,30.40,WNW,302,4.0,7.0,62,0.00,,,0.00,Wunderground v.1.15,2013-12-07 22:10:00,
2013-12-07 17:11:00,36.0,23.8,30.40,WNW,296,5.0,7.0,61,0.00,,,0.00,Wunderground v.1.15,2013-12-07 22:11:00,
2013-12-07 17:12:00,36.0,23.8,30.40,WNW,295,4.0,4.0,61,0.00,,,0.00,Wunderground v.1.15,2013-12-07 22:12:00,
2013-12-07 17:14:00,36.0,23.8,30.40,WNW,296,4.0,5.0,61,0.00,,,0.00,Wunderground v.1.15,2013-12-07 22:14:00,
2013-12-07 17:15:00,36.0,23.8,30.40,WNW,296,0.0,5.0,61,0.00,,,0.00,Wunderground v.1.15,2013-12-07 22:15:00,
2013-12-07 17:17:00,36.0,24.2,30.40,WNW,296,5.0,5.0,62,0.00,,,0.00,Wunderground v.1.15,2013-12-07 22:17:00,
2013-12-07 17:19:00,36.0,24.2,30.40,WNW,296,1.0,5.0,62,0.00,,,0.00,Wunderground v.1.15,2013-12-07 22:19:00,
2013-12-07 17:21:00,35.9,24.1,30.40,WNW,296,4.0,6.0,62,0.00,,,0.00,Wunderground v.1.15,2013-12-07 22:21:00,
2013-12-07 17:22:00,35.9,24.1,30.40,WNW,296,3.0,4.0,62,0.00,,,0.00,Wunderground v.1.15,2013-12-07 22:22:00,
2013-12-07 17:24:00,35.9,24.1,30.40,NW,308,3.0,5.0,62,0.00,,,0.00,Wunderground v.1.15,2013-12-07 22:24:00,
2013-12-07 17:25:00,35.9,24.1,30.40,NW,308,3.0,5.0,62,0.00,,,0.00,Wunderground v.1.15,2013-12-07 22:25:00,
2013-12-07 17:26:00,35.8,24.0,30.40,NW,307,4.0,5.0,62,0.00,,,0.00,Wunderground v.1.15,2013-12-07 22:26:00,
2013-12-07 17:27:00,35.8,24.0,30.40,WNW,298,4.0,7.0,62,0.00,,,0.00,Wunderground v.1.15,2013-12-07 22:27:00,
2013-12-07 17:29:00,35.8,24.0,30.40,NW,310,3.0,7.0,62,0.00,,,0.00,Wunderground v.1.15,2013-12-07 22:29:00,
2013-12-07 17:30:00,35.8,24.0,30.40,WNW,299,4.0,7.0,62,0.00,,,0.00,Wunderground v.1.15,2013-12-07 22:30:00,
2013-12-07 17:31:00,35.8,24.0,30.40,WNW,284,5.0,7.0,62,0.00,,,0.00,Wunderground v.1.15,2013-12-07 22:31:00,
2013-12-07 17:33:00,35.8,24.0,30.40,WNW,285,5.0,6.0,62,0.00,,,0.00,Wunderground v.1.15,2013-12-07 22:33:00,
2013-12-07 17:34:00,35.6,23.9,30.40,NW,305,2.0,6.0,62,0.00,,,0.00,Wunderground v.1.15,2013-12-07 22:34:00,
2013-12-07 17:35:00,35.6,23.9,30.40,WNW,300,4.0,6.0,62,0.00,,,0.00,Wunderground v.1.15,2013-12-07 22:35:00,
2013-12-07 17:36:00,35.6,23.9,30.40,NW,312,3.0,6.0,62,0.00,,,0.00,Wunderground v.1.15,2013-12-07 22:36:00,
2013-12-07 17:38:00,35.6,23.9,30.40,West,269,1.0,6.0,62,0.00,,,0.00,Wunderground v.1.15,2013-12-07 22:38:00,
2013-12-07 17:39:00,35.6,23.9,30.41,West,269,4.0,6.0,62,0.00,,,0.00,Wunderground v.1.15,2013-12-07 22:39:00,
2013-12-07 17:40:00,35.5,23.8,30.41,WNW,300,2.0,6.0,62,0.00,,,0.00,Wunderground v.1.15,2013-12-07 22:40:00,
2013-12-07 17:41:00,35.5,24.1,30.41,WNW,297,6.0,6.0,63,0.00,,,0.00,Wunderground v.1.15,2013-12-07 22:41:00,
2013-12-07 17:42:00,35.5,23.8,30.41,WNW,295,5.0,5.0,62,0.00,,,0.00,Wunderground v.1.15,2013-12-07 22:42:00,
2013-12-07 17:44:00,35.5,23.8,30.41,NW,310,2.0,9.0,62,0.00,,,0.00,Wunderground v.1.15,2013-12-07 22:44:00,
2013-12-07 17:45:00,35.5,23.8,30.41,NW,310,1.0,9.0,62,0.00,,,0.00,Wunderground v.1.15,2013-12-07 22:45:00,
2013-12-07 17:46:00,35.5,23.8,30.41,NW,305,3.0,9.0,62,0.00,,,0.00,Wunderground v.1.15,2013-12-07 22:46:00,
2013-12-07 17:47:00,35.5,23.8,30.41,NW,307,3.0,9.0,62,0.00,,,0.00,Wunderground v.1.15,2013-12-07 22:47:00,
2013-12-07 17:50:00,35.3,23.6,30.41,WNW,301,6.0,9.0,62,0.00,,,0.00,Wunderground v.1.15,2013-12-07 22:50:00,
2013-12-07 17:52:00,35.3,23.6,30.41,WNW,301,5.0,6.0,62,0.00,,,0.00,Wunderground v.1.15,2013-12-07 22:52:00,
2013-12-07 17:53:00,35.3,23.6,30.41,NW,307,5.0,9.0,62,0.00,,,0.00,Wunderground v.1.15,2013-12-07 22:53:00,
2013-12-07 17:55:00,35.3,23.6,30.41,WNW,300,5.0,10.0,62,0.00,,,0.00,Wunderground v.1.15,2013-12-07 22:55:00,
2013-12-07 17:58:00,35.2,23.5,30.41,WNW,283,6.0,10.0,62,0.00,,,0.00,Wunderground v.1.15,2013-12-07 22:58:00,
2013-12-07 18:00:00,35.2,23.5,30.41,WNW,294,3.0,10.0,62,0.00,,,0.00,Wunderground v.1.15,2013-12-07 23:00:00,
2013-12-07 18:01:00,35.2,23.5,30.41,WNW,289,4.0,10.0,62,0.00,,,0.00,Wunderground v.1.15,2013-12-07 23:01:00,
2013-12-07 18:03:00,35.2,23.9,30.41,WNW,290,7.0,7.0,63,0.00,,,0.00,Wunderground v.1.15,2013-12-07 23:03:00,
2013-12-07 18:05:00,35.0,23.7,30.41,NW,305,3.0,10.0,63,0.00,,,0.00,Wunderground v.1.15,2013-12-07 23:05:00,
2013-12-07 18:06:00,35.0,23.7,30.41,NW,305,3.0,10.0,63,0.00,,,0.00,Wunderground v.1.15,2013-12-07 23:06:00,
2013-12-07 18:07:00,35.0,23.7,30.41,West,279,7.0,10.0,63,0.00,,,0.00,Wunderground v.1.15,2013-12-07 23:07:00,
2013-12-07 18:08:00,35.0,23.3,30.42,NW,323,10.0,10.0,62,0.00,,,0.00,Wunderground v.1.15,2013-12-07 23:08:00,
2013-12-07 18:09:00,35.0,23.3,30.42,WNW,285,3.0,10.0,62,0.00,,,0.00,Wunderground v.1.15,2013-12-07 23:09:00,
2013-12-07 18:11:00,35.0,23.3,30.42,NW,304,4.0,10.0,62,0.00,,,0.00,Wunderground v.1.15,2013-12-07 23:11:00,
2013-12-07 18:13:00,35.0,23.3,30.42,WNW,299,5.0,8.0,62,0.00,,,0.00,Wunderground v.1.15,2013-12-07 23:13:00,
2013-12-07 18:15:00,34.9,23.2,30.42,West,266,6.0,10.0,62,0.00,,,0.00,Wunderground v.1.15,2013-12-07 23:15:00,
2013-12-07 18:16:00,34.9,23.2,30.42,WNW,288,4.0,10.0,62,0.00,,,0.00,Wunderground v.1.15,2013-12-07 23:16:00,
2013-12-07 18:17:00,34.9,23.2,30.42,West,271,3.0,10.0,62,0.00,,,0.00,Wunderground v.1.15,2013-12-07 23:17:00,
2013-12-07 18:18:00,34.9,23.2,30.42,WNW,300,4.0,10.0,62,0.00,,,0.00,Wunderground v.1.15,2013-12-07 23:18:00,
2013-12-07 18:20:00,34.9,23.2,30.42,West,266,4.0,10.0,62,0.00,,,0.00,Wunderground v.1.15,2013-12-07 23:20:00,
2013-12-07 18:21:00,34.9,23.2,30.42,NW,323,7.0,10.0,62,0.00,,,0.00,Wunderground v.1.15,2013-12-07 23:21:00,
2013-12-07 18:23:00,34.9,23.2,30.42,NW,306,3.0,9.0,62,0.00,,,0.00,Wunderground v.1.15,2013-12-07 23:23:00,
2013-12-07 18:24:00,34.9,23.2,30.42,NW,315,4.0,9.0,62,0.00,,,0.00,Wunderground v.1.15,2013-12-07 23:24:00,
2013-12-07 18:25:00,34.9,23.2,30.42,NW,305,4.0,11.0,62,0.00,,,0.00,Wunderground v.1.15,2013-12-07 23:25:00,
2013-12-07 18:26:00,34.9,23.2,30.43,WNW,286,5.0,11.0,62,0.00,,,0.00,Wunderground v.1.15,2013-12-07 23:26:00,
2013-12-07 18:29:00,34.9,23.2,30.42,WNW,286,4.0,11.0,62,0.00,,,0.00,Wunderground v.1.15,2013-12-07 23:29:00,
2013-12-07 18:30:00,34.7,23.0,30.43,WNW,296,6.0,11.0,62,0.00,,,0.00,Wunderground v.1.15,2013-12-07 23:30:00,
2013-12-07 18:31:00,34.7,23.0,30.43,NW,311,4.0,11.0,62,0.00,,,0.00,Wunderground v.1.15,2013-12-07 23:31:00,
2013-12-07 18:32:00,34.7,23.0,30.43,WNW,292,5.0,5.0,62,0.00,,,0.00,Wunderground v.1.15,2013-12-07 23:32:00,
2013-12-07 18:34:00,34.7,23.0,30.43,WNW,291,7.0,13.0,62,0.00,,,0.00,Wunderground v.1.15,2013-12-07 23:34:00,
2013-12-07 18:35:00,34.7,22.6,30.43,North,5,5.0,13.0,61,0.00,,,0.00,Wunderground v.1.15,2013-12-07 23:35:00,
2013-12-07 18:36:00,34.7,23.0,30.43,NW,311,3.0,13.0,62,0.00,,,0.00,Wunderground v.1.15,2013-12-07 23:36:00,
2013-12-07 18:37:00,34.7,23.0,30.43,NW,310,3.0,13.0,62,0.00,,,0.00,Wunderground v.1.15,2013-12-07 23:37:00,
2013-12-07 18:39:00,34.7,23.0,30.43,NW,323,4.0,13.0,62,0.00,,,0.00,Wunderground v.1.15,2013-12-07 23:39:00,
2013-12-07 18:40:00,34.7,23.0,30.43,WNW,294,3.0,13.0,62,0.00,,,0.00,Wunderground v.1.15,2013-12-07 23:40:00,
2013-12-07 18:41:00,34.7,23.0,30.43,NW,309,3.0,13.0,62,0.00,,,0.00,Wunderground v.1.15,2013-12-07 23:41:00,
2013-12-07 18:42:00,34.7,23.0,30.43,NW,304,4.0,5.0,62,0.00,,,0.00,Wunderground v.1.15,2013-12-07 23:42:00,
2013-12-07 18:43:00,34.6,22.9,30.43,WNW,288,5.0,5.0,62,0.00,,,0.00,Wunderground v.1.15,2013-12-07 23:43:00,
2013-12-07 18:45:00,34.6,22.9,30.43,NW,306,1.0,9.0,62,0.00,,,0.00,Wunderground v.1.15,2013-12-07 23:45:00,
2013-12-07 18:47:00,34.6,22.9,30.44,West,281,6.0,9.0,62,0.00,,,0.00,Wunderground v.1.15,2013-12-07 23:47:00,
2013-12-07 18:48:00,34.6,22.9,30.44,WNW,289,3.0,9.0,62,0.00,,,0.00,Wunderground v.1.15,2013-12-07 23:48:00,
2013-12-07 18:50:00,34.4,23.1,30.44,NW,309,2.0,9.0,63,0.00,,,0.00,Wunderground v.1.15,2013-12-07 23:50:00,
2013-12-07 18:51:00,34.4,23.1,30.44,NW,309,4.0,9.0,63,0.00,,,0.00,Wunderground v.1.15,2013-12-07 23:51:00,
2013-12-07 18:52:00,34.4,23.1,30.44,WNW,296,3.0,5.0,63,0.00,,,0.00,Wunderground v.1.15,2013-12-07 23:52:00,
2013-12-07 18:53:00,34.4,23.1,30.44,WNW,296,3.0,5.0,63,0.00,,,0.00,Wunderground v.1.15,2013-12-07 23:53:00,
2013-12-07 18:55:00,34.3,23.0,30.45,WNW,297,4.0,5.0,63,0.00,,,0.00,Wunderground v.1.15,2013-12-07 23:55:00,
2013-12-07 18:57:00,34.3,23.0,30.45,WNW,296,4.0,6.0,63,0.00,,,0.00,Wunderground v.1.15,2013-12-07 23:57:00,
2013-12-07 18:58:00,34.3,23.0,30.45,WNW,296,5.0,6.0,63,0.00,,,0.00,Wunderground v.1.15,2013-12-07 23:58:00,
2013-12-07 19:01:00,34.1,23.2,30.45,WNW,290,2.0,6.0,64,0.00,,,0.00,Wunderground v.1.15,2013-12-08 00:01:00,
2013-12-07 19:02:00,34.1,23.2,30.45,WNW,295,1.0,4.0,64,0.00,,,0.00,Wunderground v.1.15,2013-12-08 00:02:00,
2013-12-07 19:03:00,34.1,23.2,30.45,WNW,295,2.0,4.0,64,0.00,,,0.00,Wunderground v.1.15,2013-12-08 00:03:00,
2013-12-07 19:06:00,34.0,22.7,30.45,WNW,294,3.0,5.0,63,0.00,,,0.00,Wunderground v.1.15,2013-12-08 00:06:00,
2013-12-07 19:07:00,34.0,22.7,30.45,WNW,294,1.0,5.0,63,0.00,,,0.00,Wunderground v.1.15,2013-12-08 00:07:00,
2013-12-07 19:08:00,34.0,22.7,30.45,WNW,294,5.0,5.0,63,0.00,,,0.00,Wunderground v.1.15,2013-12-08 00:08:00,
2013-12-07 19:09:00,34.0,23.1,30.45,WNW,294,0.0,5.0,64,0.00,,,0.00,Wunderground v.1.15,2013-12-08 00:09:00,
2013-12-07 19:11:00,34.0,23.1,30.45,WNW,294,1.0,5.0,64,0.00,,,0.00,Wunderground v.1.15,2013-12-08 00:11:00,
2013-12-07 19:13:00,33.8,22.9,30.45,WNW,294,0.0,2.0,64,0.00,,,0.00,Wunderground v.1.15,2013-12-08 00:13:00,
2013-12-07 19:14:00,33.8,22.9,30.45,WNW,298,6.0,8.0,64,0.00,,,0.00,Wunderground v.1.15,2013-12-08 00:14:00,
2013-12-07 19:16:00,33.8,22.9,30.45,WNW,298,2.0,8.0,64,0.00,,,0.00,Wunderground v.1.15,2013-12-08 00:16:00,
2013-12-07 19:19:00,33.7,22.8,30.45,WNW,297,3.0,8.0,64,0.00,,,0.00,Wunderground v.1.15,2013-12-08 00:19:00,
2013-12-07 19:20:00,33.7,22.8,30.45,WNW,297,3.0,8.0,64,0.00,,,0.00,Wunderground v.1.15,2013-12-08 00:20:00,
2013-12-07 19:22:00,33.5,22.6,30.46,WNW,297,0.0,3.0,64,0.00,,,0.00,Wunderground v.1.15,2013-12-08 00:22:00,
2013-12-07 19:24:00,33.5,23.0,30.46,WNW,298,2.0,5.0,65,0.00,,,0.00,Wunderground v.1.15,2013-12-08 00:24:00,
2013-12-07 19:25:00,33.5,23.0,30.46,WNW,297,2.0,5.0,65,0.00,,,0.00,Wunderground v.1.15,2013-12-08 00:25:00,
2013-12-07 19:26:00,33.5,23.0,30.46,WNW,297,2.0,5.0,65,0.00,,,0.00,Wunderground v.1.15,2013-12-08 00:26:00,
2013-12-07 19:27:00,33.4,22.9,30.46,West,281,2.0,5.0,65,0.00,,,0.00,Wunderground v.1.15,2013-12-08 00:27:00,
2013-12-07 19:30:00,33.4,22.9,30.46,WNW,282,1.0,5.0,65,0.00,,,0.00,Wunderground v.1.15,2013-12-08 00:30:00,
2013-12-07 19:31:00,33.4,23.3,30.46,WNW,282,2.0,5.0,66,0.00,,,0.00,Wunderground v.1.15,2013-12-08 00:31:00,
2013-12-07 19:33:00,33.2,23.1,30.46,WNW,282,1.0,3.0,66,0.00,,,0.00,Wunderground v.1.15,2013-12-08 00:33:00,
2013-12-07 19:35:00,33.2,23.1,30.46,WNW,282,0.0,3.0,66,0.00,,,0.00,Wunderground v.1.15,2013-12-08 00:35:00,
2013-12-07 19:36:00,33.2,23.1,30.46,WNW,282,3.0,4.0,66,0.00,,,0.00,Wunderground v.1.15,2013-12-08 00:36:00,
2013-12-07 19:39:00,33.2,23.1,30.47,WNW,282,4.0,4.0,66,0.00,,,0.00,Wunderground v.1.15,2013-12-08 00:39:00,
2013-12-07 19:40:00,33.2,23.1,30.47,WNW,282,1.0,4.0,66,0.00,,,0.00,Wunderground v.1.15,2013-12-08 00:40:00,
2013-12-07 19:41:00,33.2,23.1,30.47,WNW,283,3.0,4.0,66,0.00,,,0.00,Wunderground v.1.15,2013-12-08 00:41:00,
2013-12-07 19:42:00,33.2,23.1,30.47,WNW,283,0.0,3.0,66,0.00,,,0.00,Wunderground v.1.15,2013-12-08 00:42:00,
2013-12-07 19:44:00,33.2,23.1,30.47,WNW,283,3.0,4.0,66,0.00,,,0.00,Wunderground v.1.15,2013-12-08 00:44:00,
2013-12-07 19:46:00,33.2,22.7,30.47,WNW,282,2.0,4.0,65,0.00,,,0.00,Wunderground v.1.15,2013-12-08 00:46:00,
2013-12-07 19:47:00,33.2,22.7,30.47,WNW,282,2.0,4.0,65,0.00,,,0.00,Wunderground v.1.15,2013-12-08 00:47:00,
2013-12-07 19:50:00,33.1,22.6,30.46,WNW,283,3.0,5.0,65,0.00,,,0.00,Wunderground v.1.15,2013-12-08 00:50:00,
2013-12-07 19:51:00,33.1,22.6,30.47,NW,305,4.0,5.0,65,0.00,,,0.00,Wunderground v.1.15,2013-12-08 00:51:00,
2013-12-07 19:52:00,33.1,22.6,30.47,NW,315,3.0,4.0,65,0.00,,,0.00,Wunderground v.1.15,2013-12-08 00:52:00,
2013-12-07 19:53:00,33.1,22.6,30.47,NW,312,3.0,4.0,65,0.00,,,0.00,Wunderground v.1.15,2013-12-08 00:53:00,
2013-12-07 19:55:00,33.1,22.6,30.46,WNW,298,4.0,4.0,65,0.00,,,0.00,Wunderground v.1.15,2013-12-08 00:55:00,
2013-12-07 19:56:00,33.1,22.6,30.46,WNW,298,3.0,4.0,65,0.00,,,0.00,Wunderground v.1.15,2013-12-08 00:56:00,
2013-12-07 19:57:00,33.1,22.6,30.46,WNW,298,3.0,4.0,65,0.00,,,0.00,Wunderground v.1.15,2013-12-08 00:57:00,
2013-12-07 19:58:00,33.1,22.6,30.46,WNW,298,2.0,4.0,65,0.00,,,0.00,Wunderground v.1.15,2013-12-08 00:58:00,
2013-12-07 20:01:00,33.1,22.2,30.47,WNW,302,7.0,7.0,64,0.00,,,0.00,Wunderground v.1.15,2013-12-08 01:01:00,
2013-12-07 20:02:00,33.1,22.6,30.47,WNW,283,3.0,3.0,65,0.00,,,0.00,Wunderground v.1.15,2013-12-08 01:02:00,
2013-12-07 20:03:00,33.1,22.6,30.47,WNW,291,3.0,5.0,65,0.00,,,0.00,Wunderground v.1.15,2013-12-08 01:03:00,
2013-12-07 20:06:00,33.1,22.6,30.47,NW,313,5.0,5.0,65,0.00,,,0.00,Wunderground v.1.15,2013-12-08 01:06:00,
2013-12-07 20:07:00,33.1,22.6,30.48,WNW,302,4.0,7.0,65,0.00,,,0.00,Wunderground v.1.15,2013-12-08 01:07:00,
2013-12-07 20:08:00,33.1,22.6,30.48,WNW,302,3.0,7.0,65,0.00,,,0.00,Wunderground v.1.15,2013-12-08 01:08:00,
2013-12-07 20:11:00,33.1,22.6,30.48,WNW,299,2.0,7.0,65,0.00,,,0.00,Wunderground v.1.15,2013-12-08 01:11:00,
2013-12-07 20:12:00,33.1,22.6,30.48,WNW,299,2.0,3.0,65,0.00,,,0.00,Wunderground v.1.15,2013-12-08 01:12:00,
2013-12-07 20:13:00,33.1,22.6,30.48,WNW,299,2.0,3.0,65,0.00,,,0.00,Wunderground v.1.15,2013-12-08 01:13:00,
2013-12-07 20:14:00,32.9,22.4,30.48,NW,318,5.0,5.0,65,0.00,,,0.00,Wunderground v.1.15,2013-12-08 01:14:00,
2013-12-07 20:16:00,32.9,22.4,30.48,WNW,296,5.0,10.0,65,0.00,,,0.00,Wunderground v.1.15,2013-12-08 01:16:00,
2013-12-07 20:17:00,32.9,22.0,30.48,WNW,298,2.0,10.0,64,0.00,,,0.00,Wunderground v.1.15,2013-12-08 01:17:00,
2013-12-07 20:18:00,32.9,22.0,30.48,WNW,298,3.0,10.0,64,0.00,,,0.00,Wunderground v.1.15,2013-12-08 01:18:00,
2013-12-07 20:19:00,32.9,22.0,30.48,WNW,298,1.0,10.0,64,0.00,,,0.00,Wunderground v.1.15,2013-12-08 01:19:00,
2013-12-07 20:22:00,32.9,22.4,30.48,WNW,286,4.0,4.0,65,0.00,,,0.00,Wunderground v.1.15,2013-12-08 01:22:00,
2013-12-07 20:23:00,32.9,22.4,30.49,WNW,286,3.0,4.0,65,0.00,,,0.00,Wunderground v.1.15,2013-12-08 01:23:00,
2013-12-07 20:24:00,32.9,22.4,30.49,WNW,285,3.0,5.0,65,0.00,,,0.00,Wunderground v.1.15,2013-12-08 01:24:00,
2013-12-07 20:27:00,32.9,22.4,30.48,West,267,9.0,9.0,65,0.00,,,0.00,Wunderground v.1.15,2013-12-08 01:27:00,
2013-12-07 20:28:00,32.9,22.4,30.48,WNW,286,4.0,9.0,65,0.00,,,0.00,Wunderground v.1.15,2013-12-08 01:28:00,
2013-12-07 20:29:00,32.8,22.3,30.48,WNW,289,0.0,9.0,65,0.00,,,0.00,Wunderground v.1.15,2013-12-08 01:29:00,
2013-12-07 20:33:00,32.8,22.3,30.49,WNW,289,3.0,5.0,65,0.00,,,0.00,Wunderground v.1.15,2013-12-08 01:33:00,
2013-12-07 20:34:00,32.8,22.3,30.49,WNW,289,0.0,5.0,65,0.00,,,0.00,Wunderground v.1.15,2013-12-08 01:34:00,
2013-12-07 20:35:00,32.7,22.2,30.49,WNW,289,2.0,5.0,65,0.00,,,0.00,Wunderground v.1.15,2013-12-08 01:35:00,
2013-12-07 20:38:00,32.7,22.2,30.49,WNW,300,0.0,5.0,65,0.00,,,0.00,Wunderground v.1.15,2013-12-08 01:38:00,
2013-12-07 20:39:00,32.7,22.2,30.49,WNW,300,1.0,5.0,65,0.00,,,0.00,Wunderground v.1.15,2013-12-08 01:39:00,
2013-12-07 20:40:00,32.5,22.0,30.49,WNW,299,5.0,5.0,65,0.00,,,0.00,Wunderground v.1.15,2013-12-08 01:40:00,
2013-12-07 20:42:00,32.5,22.0,30.49,WNW,300,1.0,2.0,65,0.00,,,0.00,Wunderground v.1.15,2013-12-08 01:42:00,
2013-12-07 20:43:00,32.5,22.0,30.49,WNW,300,2.0,3.0,65,0.00,,,0.00,Wunderground v.1.15,2013-12-08 01:43:00,
2013-12-07 20:44:00,32.5,22.4,30.49,WNW,300,3.0,4.0,66,0.00,,,0.00,Wunderground v.1.15,2013-12-08 01:44:00,
2013-12-07 20:45:00,32.5,22.4,30.49,WNW,299,4.0,5.0,66,0.00,,,0.00,Wunderground v.1.15,2013-12-08 01:45:00,
2013-12-07 20:46:00,32.5,22.0,30.49,NW,304,1.0,6.0,65,0.00,,,0.00,Wunderground v.1.15,2013-12-08 01:46:00,
2013-12-07 20:47:00,32.5,22.0,30.48,NW,304,2.0,6.0,65,0.00,,,0.00,Wunderground v.1.15,2013-12-08 01:47:00,
2013-12-07 20:49:00,32.5,22.4,30.48,WNW,294,5.0,6.0,66,0.00,,,0.00,Wunderground v.1.15,2013-12-08 01:49:00,
2013-12-07 20:50:00,32.4,22.3,30.49,West,277,6.0,6.0,66,0.00,,,0.00,Wunderground v.1.15,2013-12-08 01:50:00,
2013-12-07 20:51:00,32.4,22.3,30.48,NW,306,4.0,6.0,66,0.00,,,0.00,Wunderground v.1.15,2013-12-08 01:51:00,
2013-12-07 20:53:00,32.4,22.3,30.49,WNW,295,3.0,5.0,66,0.00,,,0.00,Wunderground v.1.15,2013-12-08 01:53:00,
2013-12-07 20:54:00,32.4,21.9,30.48,NW,306,5.0,9.0,65,0.00,,,0.00,Wunderground v.1.15,2013-12-08 01:54:00,
2013-12-07 20:55:00,32.4,21.9,30.48,WNW,288,5.0,9.0,65,0.00,,,0.00,Wunderground v.1.15,2013-12-08 01:55:00,
2013-12-07 20:57:00,32.4,21.9,30.48,NW,304,2.0,9.0,65,0.00,,,0.00,Wunderground v.1.15,2013-12-08 01:57:00,
2013-12-07 20:58:00,32.4,21.9,30.48,WNW,292,2.0,9.0,65,0.00,,,0.00,Wunderground v.1.15,2013-12-08 01:58:00,
2013-12-07 20:59:00,32.4,21.9,30.48,WNW,298,5.0,9.0,65,0.00,,,0.00,Wunderground v.1.15,2013-12-08 01:59:00,
2013-12-07 21:00:00,32.4,21.9,30.48,WNW,302,4.0,9.0,65,0.00,,,0.00,Wunderground v.1.15,2013-12-08 02:00:00,
2013-12-07 21:01:00,32.4,21.9,30.48,NW,317,7.0,9.0,65,0.00,,,0.00,Wunderground v.1.15,2013-12-08 02:01:00,
2013-12-07 21:02:00,32.4,21.6,30.48,WNW,294,2.0,4.0,64,0.00,,,0.00,Wunderground v.1.15,2013-12-08 02:02:00,
2013-12-07 21:03:00,32.4,21.6,30.48,WNW,295,1.0,4.0,64,0.00,,,0.00,Wunderground v.1.15,2013-12-08 02:03:00,
2013-12-07 21:05:00,32.4,21.6,30.48,West,279,3.0,6.0,64,0.00,,,0.00,Wunderground v.1.15,2013-12-08 02:05:00,
2013-12-07 21:06:00,32.4,21.6,30.48,WNW,298,3.0,6.0,64,0.00,,,0.00,Wunderground v.1.15,2013-12-08 02:06:00,
2013-12-07 21:07:00,32.4,21.6,30.48,West,280,5.0,6.0,64,0.00,,,0.00,Wunderground v.1.15,2013-12-08 02:07:00,
2013-12-07 21:08:00,32.5,21.7,30.48,WNW,295,5.0,7.0,64,0.00,,,0.00,Wunderground v.1.15,2013-12-08 02:08:00,
2013-12-07 21:10:00,32.5,21.7,30.48,WNW,289,5.0,7.0,64,0.00,,,0.00,Wunderground v.1.15,2013-12-08 02:10:00,
2013-12-07 21:11:00,32.5,21.7,30.48,WNW,303,3.0,7.0,64,0.00,,,0.00,Wunderground v.1.15,2013-12-08 02:11:00,
2013-12-07 21:12:00,32.5,21.7,30.48,NW,304,3.0,5.0,64,0.00,,,0.00,Wunderground v.1.15,2013-12-08 02:12:00,
2013-12-07 21:13:00,32.5,21.7,30.48,WNW,283,3.0,5.0,64,0.00,,,0.00,Wunderground v.1.15,2013-12-08 02:13:00,
2013-12-07 21:15:00,32.5,21.7,30.48,WNW,284,3.0,5.0,64,0.00,,,0.00,Wunderground v.1.15,2013-12-08 02:15:00,
2013-12-07 21:16:00,32.5,21.7,30.49,WNW,284,3.0,5.0,64,0.00,,,0.00,Wunderground v.1.15,2013-12-08 02:16:00,
2013-12-07 21:19:00,32.5,21.7,30.49,NW,318,2.0,5.0,64,0.00,,,0.00,Wunderground v.1.15,2013-12-08 02:19:00,
2013-12-07 21:20:00,32.5,21.7,30.48,NW,312,3.0,5.0,64,0.00,,,0.00,Wunderground v.1.15,2013-12-08 02:20:00,
2013-12-07 21:21:00,32.4,21.6,30.48,NW,312,2.0,5.0,64,0.00,,,0.00,Wunderground v.1.15,2013-12-08 02:21:00,
2013-12-07 21:22:00,32.4,21.6,30.48,NNW,329,3.0,3.0,64,0.00,,,0.00,Wunderground v.1.15,2013-12-08 02:22:00,
2013-12-07 21:24:00,32.4,21.2,30.48,NW,304,3.0,5.0,63,0.00,,,0.00,Wunderground v.1.15,2013-12-08 02:24:00,
2013-12-07 21:25:00,32.4,21.2,30.48,NW,304,4.0,5.0,63,0.00,,,0.00,Wunderground v.1.15,2013-12-08 02:25:00,
2013-12-07 21:26:00,32.4,21.2,30.49,NW,304,2.0,5.0,63,0.00,,,0.00,Wunderground v.1.15,2013-12-08 02:26:00,
2013-12-07 21:27:00,32.4,21.2,30.49,NW,304,3.0,5.0,63,0.00,,,0.00,Wunderground v.1.15,2013-12-08 02:27:00,
2013-12-07 21:29:00,32.4,21.2,30.48,NW,307,1.0,5.0,63,0.00,,,0.00,Wunderground v.1.15,2013-12-08 02:29:00,
2013-12-07 21:30:00,32.4,21.6,30.48,NW,306,2.0,5.0,64,0.00,,,0.00,Wunderground v.1.15,2013-12-08 02:30:00,
2013-12-07 21:31:00,32.4,21.6,30.48,NW,306,2.0,5.0,64,0.00,,,0.00,Wunderground v.1.15,2013-12-08 02:31:00,
2013-12-07 21:32:00,32.4,21.6,30.48,NW,306,1.0,3.0,64,0.00,,,0.00,Wunderground v.1.15,2013-12-08 02:32:00,
2013-12-07 21:33:00,32.4,21.6,30.48,NW,306,2.0,3.0,64,0.00,,,0.00,Wunderground v.1.15,2013-12-08 02:33:00,
2013-12-07 21:34:00,32.2,21.4,30.49,NW,317,4.0,7.0,64,0.00,,,0.00,Wunderground v.1.15,2013-12-08 02:34:00,
2013-12-07 21:36:00,32.2,21.4,30.49,NW,323,2.0,7.0,64,0.00,,,0.00,Wunderground v.1.15,2013-12-08 02:36:00,
2013-12-07 21:37:00,32.2,21.4,30.49,NW,323,4.0,7.0,64,0.00,,,0.00,Wunderground v.1.15,2013-12-08 02:37:00,
2013-12-07 21:38:00,32.2,21.4,30.49,NW,306,2.0,7.0,64,0.00,,,0.00,Wunderground v.1.15,2013-12-08 02:38:00,
2013-12-07 21:39:00,32.2,21.4,30.49,NW,312,2.0,7.0,64,0.00,,,0.00,Wunderground v.1.15,2013-12-08 02:39:00,
2013-12-07 21:40:00,32.2,21.0,30.49,NW,312,3.0,7.0,63,0.00,,,0.00,Wunderground v.1.15,2013-12-08 02:40:00,
2013-12-07 21:41:00,32.2,21.0,30.49,NW,312,1.0,7.0,63,0.00,,,0.00,Wunderground v.1.15,2013-12-08 02:41:00,
2013-12-07 21:42:00,32.2,21.0,30.49,NW,312,1.0,3.0,63,0.00,,,0.00,Wunderground v.1.15,2013-12-08 02:42:00,
2013-12-07 21:43:00,32.2,21.0,30.49,NW,312,2.0,4.0,63,0.00,,,0.00,Wunderground v.1.15,2013-12-08 02:43:00,
2013-12-07 21:45:00,32.2,21.0,30.50,WNW,300,6.0,6.0,63,0.00,,,0.00,Wunderground v.1.15,2013-12-08 02:45:00,
2013-12-07 21:46:00,32.2,21.0,30.50,NW,311,4.0,6.0,63,0.00,,,0.00,Wunderground v.1.15,2013-12-08 02:46:00,
2013-12-07 21:48:00,32.2,21.0,30.50,WNW,297,2.0,6.0,63,0.00,,,0.00,Wunderground v.1.15,2013-12-08 02:48:00,
2013-12-07 21:51:00,32.2,21.0,30.50,WNW,302,6.0,9.0,63,0.00,,,0.00,Wunderground v.1.15,2013-12-08 02:51:00,
2013-12-07 21:53:00,32.2,21.0,30.49,NW,313,2.0,3.0,63,0.00,,,0.00,Wunderground v.1.15,2013-12-08 02:53:00,
2013-12-07 21:56:00,32.2,21.0,30.49,NW,318,1.0,4.0,63,0.00,,,0.00,Wunderground v.1.15,2013-12-08 02:56:00,
2013-12-07 21:57:00,32.2,21.0,30.49,NW,318,0.0,4.0,63,0.00,,,0.00,Wunderground v.1.15,2013-12-08 02:57:00,
2013-12-07 21:58:00,32.2,21.0,30.50,NW,315,3.0,5.0,63,0.00,,,0.00,Wunderground v.1.15,2013-12-08 02:58:00,
2013-12-07 22:01:00,32.2,21.0,30.50,NW,305,1.0,5.0,63,0.00,,,0.00,Wunderground v.1.15,2013-12-08 03:01:00,
2013-12-07 22:02:00,32.2,21.0,30.50,NW,305,2.0,2.0,63,0.00,,,0.00,Wunderground v.1.15,2013-12-08 03:02:00,
2013-12-07 22:03:00,32.2,21.0,30.50,WNW,299,4.0,6.0,63,0.00,,,0.00,Wunderground v.1.15,2013-12-08 03:03:00,
2013-12-07 22:04:00,32.2,21.0,30.50,WNW,293,3.0,6.0,63,0.00,,,0.00,Wunderground v.1.15,2013-12-08 03:04:00,
2013-12-07 22:06:00,32.2,21.0,30.50,NW,315,5.0,7.0,63,0.00,,,0.00,Wunderground v.1.15,2013-12-08 03:06:00,
2013-12-07 22:07:00,32.2,21.0,30.50,NW,315,3.0,7.0,63,0.00,,,0.00,Wunderground v.1.15,2013-12-08 03:07:00,
2013-12-07 22:08:00,32.2,21.0,30.50,NW,315,3.0,7.0,63,0.00,,,0.00,Wunderground v.1.15,2013-12-08 03:08:00,
2013-12-07 22:09:00,32.2,21.0,30.50,WNW,296,2.0,7.0,63,0.00,,,0.00,Wunderground v.1.15,2013-12-08 03:09:00,
2013-12-07 22:11:00,32.2,20.6,30.50,NNW,347,0.0,7.0,62,0.00,,,0.00,Wunderground v.1.15,2013-12-08 03:11:00,
2013-12-07 22:13:00,32.2,20.6,30.50,NNW,333,3.0,5.0,62,0.00,,,0.00,Wunderground v.1.15,2013-12-08 03:13:00,
2013-12-07 22:14:00,32.2,20.6,30.50,NW,304,5.0,6.0,62,0.00,,,0.00,Wunderground v.1.15,2013-12-08 03:14:00,
2013-12-07 22:16:00,32.2,20.6,30.50,NNW,328,2.0,6.0,62,0.00,,,0.00,Wunderground v.1.15,2013-12-08 03:16:00,
2013-12-07 22:18:00,32.2,20.6,30.50,NW,325,3.0,6.0,62,0.00,,,0.00,Wunderground v.1.15,2013-12-08 03:18:00,
2013-12-07 22:19:00,32.2,20.6,30.50,NW,324,3.0,6.0,62,0.00,,,0.00,Wunderground v.1.15,2013-12-08 03:19:00,
2013-12-07 22:22:00,32.2,20.6,30.50,NW,323,3.0,3.0,62,0.00,,,0.00,Wunderground v.1.15,2013-12-08 03:22:00,
2013-12-07 22:24:00,32.2,20.6,30.51,WNW,302,4.0,4.0,62,0.00,,,0.00,Wunderground v.1.15,2013-12-08 03:24:00,
2013-12-07 22:25:00,32.2,20.6,30.51,WNW,302,0.0,5.0,62,0.00,,,0.00,Wunderground v.1.15,2013-12-08 03:25:00,
2013-12-07 22:27:00,32.1,20.5,30.51,WNW,302,1.0,5.0,62,0.00,,,0.00,Wunderground v.1.15,2013-12-08 03:27:00,
2013-12-07 22:29:00,32.1,20.5,30.50,NNW,331,0.0,7.0,62,0.00,,,0.00,Wunderground v.1.15,2013-12-08 03:29:00,
2013-12-07 22:30:00,32.1,20.2,30.50,NNW,331,2.0,7.0,61,0.00,,,0.00,Wunderground v.1.15,2013-12-08 03:30:00,
2013-12-07 22:31:00,32.1,20.2,30.51,WNW,292,3.0,7.0,61,0.00,,,0.00,Wunderground v.1.15,2013-12-08 03:31:00,
2013-12-07 22:32:00,32.1,20.2,30.50,NW,321,0.0,2.0,61,0.00,,,0.00,Wunderground v.1.15,2013-12-08 03:32:00,
2013-12-07 22:34:00,32.1,20.2,30.51,NW,321,3.0,3.0,61,0.00,,,0.00,Wunderground v.1.15,2013-12-08 03:34:00,
2013-12-07 22:35:00,32.1,20.2,30.51,NW,321,0.0,4.0,61,0.00,,,0.00,Wunderground v.1.15,2013-12-08 03:35:00,
2013-12-07 22:36:00,31.9,20.3,30.51,NW,308,4.0,5.0,62,0.00,,,0.00,Wunderground v.1.15,2013-12-08 03:36:00,
2013-12-07 22:37:00,31.9,20.0,30.51,NW,308,2.0,5.0,61,0.00,,,0.00,Wunderground v.1.15,2013-12-08 03:37:00,
2013-12-07 22:40:00,31.9,20.0,30.51,NW,308,2.0,6.0,61,0.00,,,0.00,Wunderground v.1.15,2013-12-08 03:40:00,
2013-12-07 22:42:00,31.9,20.0,30.51,NNW,329,4.0,4.0,61,0.00,,,0.00,Wunderground v.1.15,2013-12-08 03:42:00,
2013-12-07 22:43:00,31.9,20.0,30.51,NNW,329,0.0,4.0,61,0.00,,,0.00,Wunderground v.1.15,2013-12-08 03:43:00,
2013-12-07 22:45:00,31.9,20.0,30.51,NW,319,3.0,5.0,61,0.00,,,0.00,Wunderground v.1.15,2013-12-08 03:45:00,
2013-12-07 22:47:00,31.9,19.6,30.51,NW,315,2.0,5.0,60,0.00,,,0.00,Wunderground v.1.15,2013-12-08 03:47:00,
2013-12-07 22:48:00,31.9,19.6,30.51,NW,315,0.0,5.0,60,0.00,,,0.00,Wunderground v.1.15,2013-12-08 03:48:00,
2013-12-07 22:50:00,31.9,19.6,30.51,NW,311,3.0,5.0,60,0.00,,,0.00,Wunderground v.1.15,2013-12-08 03:50:00,
2013-12-07 22:52:00,31.9,19.6,30.51,NW,311,2.0,3.0,60,0.00,,,0.00,Wunderground v.1.15,2013-12-08 03:52:00,
2013-12-07 22:54:00,31.9,19.6,30.51,NW,311,3.0,4.0,60,0.00,,,0.00,Wunderground v.1.15,2013-12-08 03:54:00,
2013-12-07 22:55:00,31.9,19.6,30.51,NW,311,4.0,4.0,60,0.00,,,0.00,Wunderground v.1.15,2013-12-08 03:55:00,
2013-12-07 22:57:00,31.9,19.6,30.51,WNW,294,2.0,7.0,60,0.00,,,0.00,Wunderground v.1.15,2013-12-08 03:57:00,
2013-12-07 22:59:00,31.9,19.6,30.51,NNW,327,5.0,7.0,60,0.00,,,0.00,Wunderground v.1.15,2013-12-08 03:59:00,
2013-12-07 23:00:00,31.8,19.5,30.51,NW,309,3.0,7.0,60,0.00,,,0.00,Wunderground v.1.15,2013-12-08 04:00:00,
2013-12-07 23:01:00,31.8,19.5,30.51,NW,309,2.0,7.0,60,0.00,,,0.00,Wunderground v.1.15,2013-12-08 04:01:00,
2013-12-07 23:02:00,31.8,19.5,30.51,WNW,300,3.0,4.0,60,0.00,,,0.00,Wunderground v.1.15,2013-12-08 04:02:00,
2013-12-07 23:04:00,31.8,19.5,30.52,WNW,300,2.0,4.0,60,0.00,,,0.00,Wunderground v.1.15,2013-12-08 04:04:00,
2013-12-07 23:05:00,31.8,19.5,30.52,NW,309,2.0,6.0,60,0.00,,,0.00,Wunderground v.1.15,2013-12-08 04:05:00,
2013-12-07 23:06:00,31.8,19.5,30.52,NW,311,3.0,6.0,60,0.00,,,0.00,Wunderground v.1.15,2013-12-08 04:06:00,
2013-12-07 23:08:00,31.8,19.5,30.52,NW,315,2.0,6.0,60,0.00,,,0.00,Wunderground v.1.15,2013-12-08 04:08:00,
2013-12-07 23:09:00,31.6,19.3,30.52,NW,315,3.0,6.0,60,0.00,,,0.00,Wunderground v.1.15,2013-12-08 04:09:00,
2013-12-07 23:11:00,31.6,19.3,30.52,NW,315,0.0,6.0,60,0.00,,,0.00,Wunderground v.1.15,2013-12-08 04:11:00,
2013-12-07 23:13:00,31.6,19.3,30.52,NW,315,0.0,2.0,60,0.00,,,0.00,Wunderground v.1.15,2013-12-08 04:13:00,
2013-12-07 23:14:00,31.6,19.3,30.52,NW,315,0.0,2.0,60,0.00,,,0.00,Wunderground v.1.15,2013-12-08 04:14:00,
2013-12-07 23:15:00,31.5,19.2,30.52,NW,315,0.0,2.0,60,0.00,,,0.00,Wunderground v.1.15,2013-12-08 04:15:00,
2013-12-07 23:16:00,31.5,19.6,30.52,NW,315,2.0,3.0,61,0.00,,,0.00,Wunderground v.1.15,2013-12-08 04:16:00,
2013-12-07 23:18:00,31.5,19.6,30.52,NW,315,2.0,3.0,61,0.00,,,0.00,Wunderground v.1.15,2013-12-08 04:18:00,
2013-12-07 23:19:00,31.3,19.4,30.52,NW,315,1.0,3.0,61,0.00,,,0.00,Wunderground v.1.15,2013-12-08 04:19:00,
2013-12-07 23:20:00,31.3,19.4,30.52,NW,315,0.0,3.0,61,0.00,,,0.00,Wunderground v.1.15,2013-12-08 04:20:00,
2013-12-07 23:21:00,31.3,19.4,30.52,NW,315,2.0,3.0,61,0.00,,,0.00,Wunderground v.1.15,2013-12-08 04:21:00,
2013-12-07 23:22:00,31.3,19.4,30.51,WNW,298,4.0,4.0,61,0.00,,,0.00,Wunderground v.1.15,2013-12-08 04:22:00,
2013-12-07 23:24:00,31.3,19.4,30.51,NW,319,3.0,4.0,61,0.00,,,0.00,Wunderground v.1.15,2013-12-08 04:24:00,
2013-12-07 23:25:00,31.2,19.3,30.52,WNW,298,3.0,5.0,61,0.00,,,0.00,Wunderground v.1.15,2013-12-08 04:25:00,
2013-12-07 23:26:00,31.2,19.3,30.52,WNW,298,2.0,5.0,61,0.00,,,0.00,Wunderground v.1.15,2013-12-08 04:26:00,
2013-12-07 23:27:00,31.2,19.3,30.52,WNW,298,0.0,5.0,61,0.00,,,0.00,Wunderground v.1.15,2013-12-08 04:27:00,
2013-12-07 23:29:00,31.2,19.3,30.52,WNW,298,0.0,5.0,61,0.00,,,0.00,Wunderground v.1.15,2013-12-08 04:29:00,
2013-12-07 23:31:00,31.2,19.3,30.51,WNW,298,2.0,5.0,61,0.00,,,0.00,Wunderground v.1.15,2013-12-08 04:31:00,
2013-12-07 23:32:00,31.0,19.1,30.51,WNW,298,0.0,2.0,61,0.00,,,0.00,Wunderground v.1.15,2013-12-08 04:32:00,
2013-12-07 23:33:00,31.0,19.1,30.52,WNW,298,1.0,2.0,61,0.00,,,0.00,Wunderground v.1.15,2013-12-08 04:33:00,
2013-12-07 23:34:00,31.0,19.1,30.52,WNW,298,0.0,2.0,61,0.00,,,0.00,Wunderground v.1.15,2013-12-08 04:34:00,
2013-12-07 23:36:00,31.0,19.1,30.52,WNW,298,1.0,2.0,61,0.00,,,0.00,Wunderground v.1.15,2013-12-08 04:36:00,
2013-12-07 23:37:00,31.0,19.1,30.52,WNW,298,2.0,2.0,61,0.00,,,0.00,Wunderground v.1.15,2013-12-08 04:37:00,
2013-12-07 23:38:00,31.0,19.1,30.52,WNW,298,2.0,2.0,61,0.00,,,0.00,Wunderground v.1.15,2013-12-08 04:38:00,
2013-12-07 23:40:00,31.0,19.5,30.52,WNW,298,2.0,2.0,62,0.00,,,0.00,Wunderground v.1.15,2013-12-08 04:40:00,
2013-12-07 23:41:00,30.9,19.4,30.52,WNW,298,0.0,2.0,62,0.00,,,0.00,Wunderground v.1.15,2013-12-08 04:41:00,
2013-12-07 23:42:00,30.9,19.4,30.52,WNW,298,1.0,2.0,62,0.00,,,0.00,Wunderground v.1.15,2013-12-08 04:42:00,
2013-12-07 23:43:00,30.9,19.4,30.51,WNW,298,2.0,2.0,62,0.00,,,0.00,Wunderground v.1.15,2013-12-08 04:43:00,
2013-12-07 23:45:00,30.9,19.4,30.51,WNW,298,0.0,2.0,62,0.00,,,0.00,Wunderground v.1.15,2013-12-08 04:45:00,
2013-12-07 23:47:00,30.7,19.2,30.51,WNW,298,0.0,3.0,62,0.00,,,0.00,Wunderground v.1.15,2013-12-08 04:47:00,
2013-12-07 23:48:00,30.7,19.2,30.51,WNW,298,3.0,3.0,62,0.00,,,0.00,Wunderground v.1.15,2013-12-08 04:48:00,
2013-12-07 23:50:00,30.7,19.2,30.52,WNW,298,0.0,4.0,62,0.00,,,0.00,Wunderground v.1.15,2013-12-08 04:50:00,
2013-12-07 23:52:00,30.7,19.2,30.51,WNW,298,3.0,4.0,62,0.00,,,0.00,Wunderground v.1.15,2013-12-08 04:52:00,
2013-12-07 23:53:00,30.7,19.2,30.51,WNW,298,2.0,4.0,62,0.00,,,0.00,Wunderground v.1.15,2013-12-08 04:53:00,
2013-12-07 23:55:00,30.7,19.2,30.51,WNW,298,2.0,5.0,62,0.00,,,0.00,Wunderground v.1.15,2013-12-08 04:55:00,
2013-12-07 23:57:00,30.6,19.1,30.51,WNW,298,2.0,5.0,62,0.00,,,0.00,Wunderground v.1.15,2013-12-08 04:57:00,
2013-12-07 23:58:00,30.6,19.1,30.51,WNW,298,1.0,5.0,62,0.00,,,0.00,Wunderground v.1.15,2013-12-08 04:58:00,